                ,  0.200,  0.300,  0.400,  0.500,  0.600,  0.700,  0.800,  0.900,  1.000,  1.100,  1.200,  1.300,  1.400,  1.500,  1.600,  1.700,  1.800,  1.900,  2.000,  2.100,  2.200,  2.300,  2.400,  2.500,  2.600,  2.700,  2.800,  2.900,  3.000,  3.100,  3.200,  3.300,  3.400,  3.500,  3.600,  3.700,  3.800,  3.900,  4.000,  4.100,  4.200,  4.300,  4.400,  4.500,  4.600,  4.700,  4.800,  4.900,  5.000,  5.100,  5.200,  5.300,  5.400,  5.500,  5.600,  5.700,  5.800,  5.900,  6.000,  6.100,  6.200,  6.300,  6.400,  6.500,  6.600,  6.700,  6.800,  6.900,  7.000,  7.100,  7.200,  7.300,  7.400,  7.500,  7.600,  7.700,  7.800,  7.900,  8.000
2007/07/23 00:00,   -0.0,   -0.0,   -0.0,   -0.0,   -0.1,   -0.1,    0.0,    0.0,    0.0,   -0.0,   -0.0,    0.1,    0.1,    0.1,    0.1,    0.1,    0.1,    0.1,    0.1,    0.2,    0.3,    0.2,    0.3,    0.2,    0.3,    0.2,    0.1,    0.1,    0.0,    0.1,    0.0,    0.4,    0.3,    0.0,    0.3,  999.0,  999.0,    0.2,    0.2,    0.1,  999.0,    0.0,    0.6,    0.6,    0.2,    0.3,  999.0,  999.0,  999.0,  999.0,  999.0,  999.0,    0.6,    0.3,  999.0,  999.0,  999.0,  999.0,  999.0,  999.0,  999.0,  999.0,  999.0,  999.0,  999.0,  999.0,  999.0,  999.0,  999.0,    0.6,  999.0,    0.6,  999.0,    0.7,  999.0,    0.6,  999.0,  999.0,    0.1
2007/07/23 00:10,   -0.0,   -0.0,   -0.0,   -0.0,   -0.0,   -0.0,    0.0,   -0.0,   -0.0,   -0.0,   -0.0,   -0.0,    0.0,    0.0,    0.0,    0.1,    0.0,    0.1,    0.1,    0.1,    0.2,    0.2,    0.2,    0.3,    0.2,    0.1,    0.0,    0.0,    0.0,    0.1,    0.0,    0.1,    0.3,    0.2,    0.3,    0.2,    0.5,    0.6,    0.4,    0.4,    0.3,  999.0,  999.0,  999.0,    0.4,    0.3,  999.0,  999.0,  999.0,  999.0,  999.0,  999.0,   -0.0,   -0.0,    0.1,   -0.0,  999.0,  999.0,  999.0,  999.0,   -0.1,    0.1,   -0.2,  999.0,  999.0,    0.0,  999.0,  999.0,  999.0,  999.0,    0.0,   -0.2,   -0.1,    0.0,   -0.2,  999.0,  999.0,  999.0,  999.0
2007/07/23 00:20,   -0.0,   -0.0,   -0.0,   -0.0,   -0.1,   -0.1,  999.0,   -0.0,   -0.0,   -0.0,   -0.0,   -0.0,   -0.0,    0.1,    0.1,    0.1,    0.3,    0.2,    0.1,    0.3,    0.2,    0.2,    0.1,    0.1,    0.2,    0.1,    0.2,    0.1,    0.0,    0.0,    0.1,    0.3,    0.2,    0.2,    0.1,    0.3,    0.3,  999.0,    0.3,    0.3,    0.3,    0.0,    0.1,   -0.1,    0.0,    0.1,   -0.2,  999.0,  999.0,  999.0,  999.0,  999.0,   -0.0,    0.0,    0.0,   -0.1,  999.0,  999.0,  999.0,  999.0,  999.0,  999.0,  999.0,  999.0,  999.0,  999.0,  999.0,  999.0,  999.0,  999.0,   -0.2,   -0.1,  999.0,   -0.3,   -0.1,   -0.2,  999.0,  999.0,  999.0
2007/07/23 00:30,    0.0,   -0.0,    0.0,   -0.0,   -0.0,   -0.0,  999.0,   -0.0,   -0.0,   -0.0,   -0.0,   -0.0,   -0.0,    0.1,    0.2,    0.1,   -0.0,    0.1,    0.1,    0.1,    0.1,    0.1,    0.1,    0.2,    0.2,    0.3,    0.3,    0.2,    0.0,    0.1,    0.0,    0.1,    0.2,    0.2,    0.2,    0.1,    0.3,  999.0,   -0.1,    0.1,   -0.2,    0.1,   -0.0,    0.4,    0.2,    0.3,  999.0,  999.0,  999.0,  999.0,  999.0,   -0.1,   -0.1,    0.0,    0.2,    0.2,    0.1,  999.0,  999.0,  999.0,   -0.1,  999.0,  999.0,    0.1,  999.0,  999.0,  999.0,  999.0,   -0.1,   -0.3,    0.0,   -0.1,   -0.0,   -0.1,  999.0,  999.0,  999.0,  999.0,  999.0
2007/07/23 00:40,    0.0,   -0.0,    0.0,   -0.0,   -0.1,   -0.0,  999.0,   -0.0,   -0.1,   -0.1,   -0.1,   -0.2,   -0.1,   -0.1,   -0.0,   -0.0,    0.1,    0.0,    0.2,   -0.0,    0.0,    0.1,    0.0,    0.2,    0.2,    0.3,    0.1,    0.1,    0.0,    0.1,    0.0,    0.1,    0.1,    0.0,   -0.2,    0.1,    0.1,   -0.3,    0.1,    0.0,    0.1,    0.1,    0.1,   -0.0,    0.1,    0.0,    0.1,    0.1,   -0.2,    0.0,    0.1,    0.2,    0.1,    0.1,   -0.0,    0.0,    0.0,  999.0,  999.0,  999.0,   -0.3,  999.0,   -0.0,  999.0,  999.0,  999.0,  999.0,  999.0,    0.2,  999.0,    0.3,    0.3,    0.3,    0.4,    0.4,    0.4,  999.0,    0.5,    0.5
2007/07/23 00:50,    0.0,   -0.0,   -0.0,   -0.0,   -0.0,   -0.0,  999.0,    0.0,   -0.0,   -0.1,   -0.1,    0.0,    0.1,    0.1,    0.2,    0.1,    0.1,    0.2,    0.2,    0.2,    0.1,    0.1,    0.1,    0.1,    0.1,  999.0,    0.0,   -0.0,    0.0,   -0.0,   -0.0,   -0.1,   -0.2,   -0.2,   -0.3,   -0.2,   -0.2,   -0.1,    0.0,   -0.2,   -0.2,   -0.1,   -0.1,   -0.2,   -0.1,   -0.1,   -0.0,    0.0,    0.2,   -0.1,   -0.1,   -0.0,    0.1,   -0.1,    0.0,   -0.2,   -0.0,   -0.3,   -0.3,    0.1,  999.0,    0.0,    0.0,   -0.0,   -0.1,  999.0,  999.0,  999.0,  999.0,    0.0,   -0.1,   -0.1,   -0.0,   -0.0,   -0.1,   -0.2,  999.0,  999.0,  999.0
2007/07/23 01:00,   -0.0,   -0.0,    0.0,   -0.0,   -0.0,   -0.0,    0.0,   -0.0,   -0.0,   -0.0,   -0.0,    0.0,    0.1,    0.2,    0.3,    0.3,    0.3,    0.4,    0.4,    0.3,    0.3,    0.4,    0.3,    0.3,    0.3,    0.2,    0.1,    0.1,    0.0,   -0.0,    0.0,    0.1,    0.2,    0.1,    0.2,    0.2,    0.2,    0.2,    0.1,    0.1,    0.2,   -0.0,   -0.0,    0.1,    0.0,    0.2,    0.0,   -0.1,   -0.1,   -0.1,    0.0,   -0.0,    0.1,   -0.1,    0.0,   -0.1,   -0.1,   -0.1,   -0.0,    0.0,    0.0,   -0.2,   -0.1,  999.0,  999.0,    0.0,  999.0,  999.0,  999.0,  999.0,    0.2,    0.2,    0.3,    0.3,    0.1,    0.0,  999.0,    0.4,  999.0
2007/07/23 01:10,   -0.0,    0.0,   -0.0,   -0.0,   -0.0,   -0.0,   -0.0,    0.0,    0.0,   -0.0,    0.0,    0.1,   -0.0,    0.0,    0.1,    0.1,    0.1,    0.1,    0.2,    0.3,    0.2,    0.1,    0.2,    0.2,    0.2,    0.1,    0.0,    0.0,   -0.0,    0.0,    0.0,    0.1,    0.2,    0.1,    0.1,    0.0,    0.1,    0.1,    0.0,   -0.0,    0.2,    0.1,    0.1,    0.0,    0.1,    0.1,    0.0,    0.1,   -0.2,   -0.1,   -0.1,    0.1,   -0.0,    0.0,   -0.1,   -0.3,   -0.2,   -0.1,  999.0,   -0.2,   -0.1,   -0.2,   -0.3,   -0.1,  999.0,  999.0,  999.0,  999.0,  999.0,  999.0,   -0.1,    0.0,   -0.1,   -0.0,   -0.1,    0.1,  999.0,  999.0,  999.0
2007/07/23 01:20,   -0.0,    0.0,  999.0,   -0.0,   -0.0,   -0.0,  999.0,   -0.0,    0.0,   -0.0,    0.0,    0.1,    0.0,    0.0,    0.0,    0.0,    0.0,    0.2,    0.1,    0.1,    0.1,    0.1,    0.1,    0.2,    0.0,    0.2,    0.1,    0.0,    0.0,    0.1,    0.1,    0.2,    0.3,    0.1,    0.2,    0.3,    0.3,    0.2,    0.2,    0.2,    0.3,    0.3,    0.0,    0.2,    0.1,    0.1,    0.2,    0.1,   -0.2,    0.1,  999.0,  999.0,    0.1,    0.3,    0.2,    0.2,    0.2,    0.0,    0.2,    0.4,    0.6,    0.5,    0.0,  999.0,  999.0,  999.0,  999.0,  999.0,  999.0,    0.2,    0.2,  999.0,   -0.1,    0.1,    0.2,   -0.0,   -0.2,  999.0,  999.0
2007/07/23 01:30,    0.0,   -0.0,  999.0,   -0.0,   -0.0,   -0.0,  999.0,   -0.0,   -0.0,    0.0,   -0.0,   -0.1,   -0.1,    0.0,   -0.0,   -0.1,   -0.1,   -0.1,   -0.1,   -0.1,   -0.1,   -0.1,   -0.1,   -0.2,   -0.2,   -0.3,   -0.2,   -0.1,   -0.0,   -0.1,   -0.1,   -0.0,    0.1,    0.2,    0.1,    0.1,    0.3,    0.3,    0.2,    0.2,    0.2,    0.1,    0.2,    0.1,    0.1,    0.2,    0.2,    0.1,    0.1,    0.3,    0.3,    0.3,    0.1,  999.0,  999.0,  999.0,    0.4,    0.1,   -0.0,   -0.0,    0.2,   -0.1,    0.1,    0.2,    0.1,  999.0,  999.0,  999.0,  999.0,  999.0,    0.0,   -0.0,  999.0,    0.3,    0.1,  999.0,  999.0,   -0.1,   -0.1
2007/07/23 01:40,    0.0,   -0.0,    0.0,   -0.0,   -0.0,   -0.0,  999.0,   -0.0,   -0.0,   -0.0,   -0.1,   -0.0,   -0.0,   -0.0,    0.2,    0.1,    0.0,    0.0,    0.0,   -0.0,   -0.0,   -0.1,   -0.3,   -0.2,   -0.2,   -0.1,   -0.1,   -0.1,   -0.1,   -0.1,   -0.1,    0.0,    0.0,    0.1,    0.0,    0.0,    0.1,    0.0,    0.1,    0.2,    0.1,    0.1,    0.2,    0.1,    0.2,    0.2,    0.1,    0.1,    0.1,    0.2,    0.1,    0.1,    0.1,    0.0,   -0.1,   -0.0,   -0.1,   -0.1,   -0.2,   -0.1,   -0.1,    0.2,    0.2,    0.0,    0.1,  999.0,  999.0,  999.0,  999.0,    0.1,    0.1,    0.3,    0.2,    0.3,    0.2,    0.1,    0.0,    0.1,    0.1
2007/07/23 01:50,   -0.0,   -0.0,    0.0,   -0.0,   -0.0,   -0.0,  999.0,   -0.0,   -0.0,   -0.0,   -0.1,   -0.1,   -0.0,   -0.1,   -0.0,    0.0,    0.1,   -0.0,    0.0,    0.1,    0.1,    0.1,    0.0,    0.0,    0.1,    0.2,    0.2,    0.2,    0.2,    0.2,    0.3,    0.4,    0.4,    0.2,    0.1,    0.2,    0.2,    0.3,    0.2,    0.2,    0.1,    0.2,    0.1,    0.2,    0.3,    0.3,    0.2,    0.1,    0.1,    0.0,    0.0,    0.1,    0.0,    0.1,   -0.2,   -0.1,   -0.0,   -0.1,   -0.1,   -0.2,   -0.2,   -0.3,   -0.2,   -0.1,   -0.2,   -0.4,  999.0,  999.0,    0.1,    0.0,  999.0,  999.0,    0.0,   -0.2,   -0.2,  999.0,   -0.3,   -0.3,  999.0
2007/07/23 02:00,   -1.8,   -1.8,   -2.3,   -1.8,   -1.8,   -1.8,   -2.2,   -2.2,   -1.9,   -1.9,   -2.2,   -2.2,   -2.0,   -1.9,   -1.7,   -1.7,   -1.5,   -1.4,   -1.3,   -1.2,   -1.1,   -1.2,   -1.0,   -0.9,    0.1,   -1.1,   -1.0,   -0.9,   -0.8,   -0.9,   -1.1,   -0.9,   -1.0,   -1.0,   -1.1,   -1.4,   -1.4,   -1.4,   -1.4,   -1.5,   -1.4,   -1.5,   -1.6,   -1.3,   -1.3,   -1.4,   -1.3,   -1.5,   -1.3,   -1.2,   -1.1,   -0.9,   -0.8,   -0.4,   -0.1,   -0.4,   -1.0,   -0.8,   -0.3,   -0.4,   -0.3,   -0.3,   -0.3,    0.1,   -0.2,   -0.8,   -0.5,   -0.6,   -0.4,   -0.9,   -0.4,   -0.4,   -0.6,    0.1,   -0.0,   -0.1,   -0.2,  999.0,  999.0
2007/07/23 02:10,   -4.9,   -3.2,   -5.1,   -4.9,   -4.7,   -4.5,   -4.4,   -4.8,   -4.0,   -4.0,   -3.3,   -3.2,   -3.0,   -2.8,   -2.7,   -3.0,   -3.1,   -2.8,   -3.0,   -2.6,   -3.8,   -3.7,   -2.9,   -2.9,   -3.0,   -3.5,   -3.6,   -3.4,   -3.2,   -3.1,   -2.9,   -2.9,   -2.8,   -2.9,   -2.6,   -2.6,   -2.9,   -3.0,   -2.7,   -2.3,   -2.1,   -2.1,   -1.8,   -2.0,   -1.9,   -1.7,   -1.7,   -1.4,   -1.5,   -1.3,   -1.1,   -1.1,   -1.1,   -1.0,   -1.0,   -1.3,   -1.1,   -1.2,   -1.4,   -1.2,   -1.3,   -0.4,   -0.4,   -0.4,   -1.1,   -0.9,   -0.9,   -0.7,   -0.4,   -0.5,   -0.2,   -0.3,   -0.0,    0.3,    0.3,    0.3,    0.1,    0.3,  999.0
2007/07/23 02:20,   -0.9,   -0.0,  999.0,  999.0,  999.0,  999.0,  999.0,  999.0,   -0.8,   -0.7,    0.1,    0.2,    0.2,    0.2,   -0.5,    0.4,    0.4,    0.3,    0.3,    0.4,    0.5,    0.4,    0.4,    0.4,    0.4,    0.4,    0.3,    0.2,    0.1,    0.1,    0.1,    0.0,    0.1,    0.1,    0.1,   -0.1,   -0.2,   -0.1,   -0.2,   -0.4,   -0.5,   -0.4,   -0.4,   -0.2,   -0.2,   -0.4,    0.1,    0.4,    0.3,   -0.2,   -0.0,   -0.0,   -0.3,   -0.2,  999.0,   -0.8,   -0.7,   -0.8,  999.0,    0.2,    0.2,    0.0,    0.1,    0.3,    0.2,    0.3,    0.5,  999.0,    0.3,    0.1,    0.4,    0.3,    0.3,    0.3,    0.3,    0.0,    0.2,  999.0,  999.0
2007/07/23 02:30,   -3.9,   -3.6,   -3.3,   -3.6,   -3.7,   -3.4,   -3.3,   -3.1,   -3.1,   -3.1,   -3.1,   -2.9,   -3.0,   -3.0,   -3.0,   -2.9,   -2.4,   -2.3,  999.0,   -0.5,   -0.3,   -0.4,   -0.3,   -1.0,   -1.6,   -0.6,   -1.3,   -0.4,   -0.7,   -0.7,   -0.9,   -0.6,   -0.2,   -0.1,   -0.3,   -0.3,   -0.6,   -0.5,   -0.9,   -0.9,   -1.2,   -1.1,   -1.2,   -0.7,   -0.6,   -0.8,   -1.2,   -0.1,  999.0,  999.0,   -0.3,   -0.3,   -0.5,   -0.8,   -0.5,   -0.5,   -0.3,   -0.6,    0.1,    0.2,    0.3,    0.1,    0.2,    0.3,    0.3,    0.2,    0.1,   -0.3,    0.3,   -0.3,    0.0,    0.2,    0.2,    0.2,    0.1,   -0.0,   -0.1,   -0.2,  999.0
2007/07/23 02:40,   -0.0,   -1.0,   -0.9,   -1.2,   -1.3,   -1.3,   -1.7,   -1.6,   -2.3,   -2.2,   -2.2,   -3.1,   -2.8,   -3.5,   -0.5,   -2.8,   -2.5,   -2.1,   -2.0,   -0.4,   -0.4,   -0.4,   -0.3,   -0.3,    0.0,   -0.2,   -0.4,   -0.4,   -0.3,   -0.4,   -0.3,   -0.1,   -0.2,   -0.2,   -0.6,   -0.5,   -0.5,   -0.4,   -0.3,   -0.3,   -0.5,   -0.1,   -0.2,   -0.1,    0.1,   -0.0,    0.0,    0.1,    0.2,    0.1,   -0.1,    0.0,   -0.6,   -0.6,   -0.9,  999.0,  999.0,  999.0,   -1.2,   -0.8,   -0.2,  999.0,  999.0,   -0.2,   -0.4,   -0.9,   -0.3,   -0.2,   -0.1,   -0.0,   -0.1,   -0.3,   -0.3,   -0.3,   -0.3,   -0.3,  999.0,  999.0,  999.0
2007/07/23 02:50,    0.0,   -0.0,   -0.0,   -0.0,   -0.0,   -0.1,   -0.0,   -0.0,   -0.1,   -0.1,   -0.1,   -0.0,   -0.1,   -0.0,   -0.1,    0.1,    0.1,    0.1,    0.1,    0.1,    0.1,    0.2,    0.2,    0.2,    0.3,    0.4,    0.4,    0.2,    0.1,    0.1,    0.1,   -0.1,    0.2,    0.3,    0.1,    0.3,    0.4,    0.2,    0.0,   -0.2,    0.1,    0.2,    0.2,    0.0,   -0.1,   -0.1,    0.0,   -0.1,   -0.2,   -0.5,   -0.1,   -0.3,   -0.8,   -0.2,   -0.0,   -0.1,   -0.1,  999.0,  999.0,  999.0,  999.0,  999.0,  999.0,  999.0,  999.0,    0.2,    0.2,    0.1,    0.1,  999.0,   -0.2,   -0.2,   -0.2,   -0.6,    0.3,  999.0,   -1.6,  999.0,  999.0
2007/07/23 03:00,   -0.0,   -0.0,   -0.0,   -0.0,   -0.0,   -0.1,  999.0,    0.0,   -0.0,   -0.0,   -0.1,   -0.1,   -0.1,   -0.1,   -0.0,   -0.1,   -0.1,   -0.1,   -0.1,   -0.1,   -0.1,    0.1,    0.1,    0.1,    0.1,    0.1,    0.2,    0.0,   -0.0,    0.1,    0.1,    0.2,    0.1,    0.1,    0.1,   -0.2,   -0.2,   -0.0,   -0.1,   -0.3,   -0.1,   -0.3,   -0.1,   -0.0,   -0.2,   -0.1,   -0.1,   -0.2,   -0.3,   -0.2,   -0.4,   -0.3,   -0.2,  999.0,  999.0,  999.0,   -0.2,   -0.3,  999.0,  999.0,  999.0,  999.0,  999.0,  999.0,  999.0,  999.0,  999.0,  999.0,  999.0,   -0.0,    0.1,    0.2,   -0.1,    0.1,    0.1,  999.0,    0.1,  999.0,  999.0
2007/07/23 03:10,   -0.0,   -0.0,    0.0,   -0.0,   -0.0,    0.0,  999.0,    0.0,    0.0,    0.0,    0.1,    0.1,    0.1,    0.2,    0.2,    0.2,    0.2,    0.2,    0.2,    0.2,    0.2,    0.2,    0.2,    0.3,    0.4,    0.3,    0.4,    0.3,    0.2,    0.2,    0.1,    0.2,    0.2,    0.1,    0.4,    0.1,    0.3,    0.1,   -0.0,    0.2,    0.1,    0.0,    0.0,    0.0,    0.0,    0.1,    0.2,  999.0,  999.0,  999.0,    0.2,    0.0,    0.1,    0.2,  999.0,  999.0,  999.0,    0.2,   -0.0,   -0.2,   -0.2,  999.0,  999.0,  999.0,  999.0,  999.0,  999.0,  999.0,  999.0,    0.2,    0.0,    0.2,  999.0,    0.1,  999.0,  999.0,    0.2,    0.1,  999.0
2007/07/23 03:20,   -0.0,    0.0,    0.0,    0.0,    0.0,   -0.0,  999.0,  999.0,   -0.0,   -0.0,    0.0,    0.1,    0.1,    0.1,    0.1,    0.2,    0.2,    0.3,    0.4,    0.4,    0.5,    0.5,    0.4,    0.5,    0.4,    0.4,    0.3,    0.2,    0.1,    0.1,    0.1,    0.2,    0.2,    0.1,    0.2,    0.2,    0.3,    0.2,    0.4,    0.1,    0.3,    0.2,    0.2,    0.1,    0.1,  999.0,  999.0,  999.0,  999.0,  999.0,   -0.3,   -0.2,   -0.1,   -0.1,   -0.1,  999.0,  999.0,  999.0,  999.0,   -0.5,   -0.4,  999.0,  999.0,  999.0,  999.0,  999.0,  999.0,  999.0,  999.0,  999.0,    0.0,   -0.2,   -0.0,   -0.2,    0.2,  999.0,  999.0,  999.0,   -0.2
2007/07/23 03:30,   -0.0,   -0.0,    0.0,   -0.0,   -0.0,   -0.0,  999.0,   -0.0,   -0.0,   -0.1,   -0.1,   -0.0,   -0.1,   -0.0,    0.0,    0.1,    0.2,    0.1,    0.1,    0.1,    0.1,    0.1,   -0.0,    0.1,    0.1,    0.1,    0.1,    0.2,    0.1,    0.1,    0.1,    0.2,    0.2,    0.2,    0.2,    0.5,  999.0,  999.0,    0.2,    0.2,    0.2,    0.2,    0.1,    0.2,   -0.0,  999.0,    0.1,    0.1,  999.0,   -0.0,    0.1,   -0.1,   -0.1,   -0.0,    0.2,  999.0,  999.0,  999.0,  999.0,   -0.1,   -0.3,  999.0,  999.0,  999.0,  999.0,  999.0,  999.0,  999.0,  999.0,  999.0,  999.0,    0.1,   -0.0,    0.1,   -0.0,  999.0,  999.0,  999.0,    0.1
2007/07/23 03:40,   -0.0,   -0.0,   -0.0,    0.0,   -0.0,    0.0,  999.0,    0.0,   -0.0,    0.0,    0.1,    0.0,    0.1,    0.1,    0.1,    0.0,    0.1,    0.1,    0.1,    0.2,    0.1,    0.1,    0.1,    0.1,    0.1,    0.2,    0.1,    0.2,    0.1,    0.1,    0.1,    0.1,    0.1,    0.1,    0.1,  999.0,    0.2,  999.0,    0.2,    0.3,    0.2,    0.2,    0.1,    0.1,    0.1,    0.0,    0.1,   -0.1,   -0.3,    0.0,  999.0,  999.0,    0.1,    0.1,   -0.2,   -0.1,   -0.3,  999.0,  999.0,  999.0,   -0.3,   -0.2,   -0.2,  999.0,  999.0,  999.0,  999.0,  999.0,  999.0,  999.0,  999.0,    0.1,    0.1,    0.2,   -0.2,  999.0,  999.0,  999.0,  999.0
2007/07/23 03:50,   -0.0,   -0.0,   -0.0,   -0.0,   -0.0,   -0.0,  999.0,    0.0,   -0.0,   -0.0,   -0.0,   -0.0,   -0.0,   -0.0,    0.1,    0.0,    0.1,    0.1,    0.2,    0.1,    0.1,    0.1,    0.1,    0.1,    0.1,    0.0,    0.0,    0.0,   -0.0,   -0.0,    0.0,    0.0,    0.1,   -0.0,   -0.0,  999.0,    0.3,    0.2,    0.1,    0.2,    0.0,    0.0,    0.1,    0.2,    0.0,    0.1,    0.1,   -0.1,   -0.0,   -0.3,   -0.2,   -0.1,   -0.1,   -0.1,   -0.1,   -0.1,   -0.2,   -0.0,   -0.2,   -0.1,   -0.1,   -0.1,   -0.2,  999.0,  999.0,  999.0,  999.0,  999.0,  999.0,  999.0,  999.0,  999.0,    0.1,    0.2,    0.2,  999.0,  999.0,  999.0,  999.0
2007/07/23 04:00,   -0.0,   -0.0,   -0.0,   -0.0,   -0.0,   -0.0,    0.0,   -0.0,   -0.1,   -0.1,   -0.1,   -0.2,   -0.1,   -0.0,    0.0,    0.0,    0.1,    0.1,    0.1,    0.1,    0.2,    0.2,    0.1,    0.2,    0.1,    0.2,    0.2,    0.2,    0.1,    0.1,    0.1,    0.2,    0.3,    0.2,    0.2,    0.2,    0.4,    0.4,    0.5,    0.5,    0.4,    0.5,    0.4,    0.4,    0.3,    0.3,    0.3,    0.3,    0.1,    0.3,    0.2,    0.2,   -0.0,    0.0,   -0.0,  999.0,    0.0,   -0.1,    0.1,    0.2,   -0.1,   -0.1,    0.1,    0.0,  999.0,  999.0,  999.0,  999.0,  999.0,    0.1,  999.0,  999.0,  999.0,  999.0,  999.0,  999.0,  999.0,  999.0,  999.0
2007/07/23 04:10,    0.0,   -0.0,   -0.0,   -0.0,   -0.0,   -0.0,  999.0,   -0.0,   -0.0,   -0.1,   -0.0,    0.1,   -0.0,   -0.0,   -0.0,   -0.0,    0.1,   -0.0,    0.1,    0.1,    0.1,    0.1,    0.1,    0.1,    0.1,    0.1,    0.2,    0.1,    0.1,    0.1,    0.1,    0.1,    0.0,   -0.0,    0.1,    0.1,    0.1,    0.1,    0.2,    0.0,    0.0,   -0.0,   -0.1,    0.1,    0.0,    0.3,    0.0,   -0.0,   -0.1,    0.0,   -0.1,  999.0,   -0.1,    0.0,   -0.1,   -0.2,   -0.2,   -0.2,   -0.2,   -0.1,   -0.0,   -0.2,   -0.1,   -0.2,   -0.1,   -0.1,  999.0,  999.0,   -0.0,  999.0,  999.0,  999.0,  999.0,  999.0,  999.0,  999.0,  999.0,  999.0,  999.0
2007/07/23 04:20,    0.1,   -0.0,    0.0,   -0.0,   -0.0,   -0.0,   -0.0,   -0.0,   -0.0,   -0.0,    0.0,    0.1,    0.0,    0.0,    0.0,    0.0,    0.1,    0.0,    0.1,  999.0,    0.1,    0.1,    0.2,    0.2,    0.1,    0.2,    0.1,    0.1,    0.0,    0.1,    0.0,    0.1,    0.1,    0.0,    0.1,    0.0,   -0.0,    0.1,    0.2,   -0.1,   -0.1,   -0.2,   -0.2,   -0.1,    0.2,   -0.0,    0.0,    0.2,   -0.0,   -0.0,    0.2,    0.1,    0.0,  999.0,    0.1,    0.1,   -0.1,    0.1,    0.1,    0.3,    0.1,    0.1,    0.1,    0.2,   -0.5,   -0.1,    0.2,    0.1,  999.0,  999.0,  999.0,  999.0,    0.2,    0.4,    0.1,    0.0,  999.0,  999.0,  999.0
2007/07/23 04:30,    0.0,   -0.1,    0.0,   -0.0,   -0.1,   -0.0,  999.0,   -0.0,   -0.1,   -0.1,   -0.0,   -0.1,   -0.1,   -0.1,   -0.0,    0.0,    0.1,    0.1,    0.2,    0.1,    0.2,    0.2,    0.1,    0.2,    0.2,    0.0,    0.1,    0.0,    0.1,    0.0,    0.0,    0.2,    0.2,    0.1,    0.2,    0.2,    0.2,    0.3,    0.1,  999.0,    0.3,    0.1,    0.1,    0.3,    0.3,    0.1,   -0.0,  999.0,    0.1,    0.0,    0.1,    0.2,    0.1,   -0.2,    0.1,    0.0,   -0.0,   -0.2,    0.0,   -0.1,   -0.1,   -0.1,   -0.1,   -0.1,   -0.2,   -0.2,  999.0,  999.0,  999.0,  999.0,  999.0,  999.0,   -0.1,    0.3,    0.2,  999.0,  999.0,  999.0,  999.0
2007/07/23 04:40,   -0.0,    0.0,   -0.0,   -0.0,   -0.1,   -0.0,  999.0,   -0.0,   -0.0,   -0.0,   -0.0,   -0.1,   -0.0,    0.0,    0.0,    0.0,   -0.1,   -0.0,   -0.1,    0.1,    0.1,    0.1,   -0.1,   -0.0,    0.0,   -0.0,    0.0,   -0.0,   -0.0,   -0.0,   -0.0,   -0.1,   -0.0,   -0.0,    0.0,   -0.0,   -0.0,  999.0,  999.0,    0.1,   -0.1,    0.0,   -0.0,    0.2,    0.2,    0.0,  999.0,  999.0,  999.0,    0.3,    0.2,    0.2,   -0.0,  999.0,    0.1,    0.0,    0.2,    0.1,    0.0,    0.3,   -0.1,    0.1,    0.0,   -0.1,   -0.1,   -0.1,  999.0,  999.0,  999.0,  999.0,  999.0,    0.1,   -0.0,   -0.1,    0.0,  999.0,  999.0,  999.0,  999.0
2007/07/23 04:50,    0.0,   -0.0,   -0.0,   -0.0,   -0.0,    0.0,  999.0,   -0.0,   -0.0,   -0.0,   -0.1,   -0.0,    0.0,    0.0,    0.0,    0.0,    0.0,    0.0,    0.0,    0.1,    0.1,    0.1,    0.1,    0.1,    0.1,    0.1,    0.1,    0.0,    0.0,    0.0,   -0.0,    0.0,    0.0,    0.0,    0.1,   -0.0,   -0.1,   -0.1,   -0.1,  999.0,    0.2,  999.0,    0.2,    0.4,   -0.0,    0.0,   -0.1,    0.2,    0.2,    0.1,    0.1,    0.0,    0.0,   -0.2,    0.1,    0.2,    0.1,    0.1,    0.1,    0.0,    0.1,    0.0,   -0.3,  999.0,  999.0,  999.0,  999.0,  999.0,  999.0,  999.0,  999.0,    0.2,    0.5,    0.3,    0.1,  999.0,  999.0,  999.0,  999.0
2007/07/23 05:00,   -0.0,    0.0,    0.0,   -0.0,   -0.0,   -0.0,  999.0,  999.0,    0.0,    0.0,    0.0,   -0.0,    0.0,    0.1,    0.1,    0.0,    0.1,    0.1,    0.1,    0.1,    0.2,    0.3,    0.3,    0.2,    0.3,    0.2,    0.2,    0.0,    0.0,   -0.0,   -0.0,    0.1,    0.1,    0.0,   -0.0,    0.1,    0.2,    0.1,    0.2,    0.2,   -0.1,    0.2,    0.0,   -0.0,  999.0,  999.0,    0.2,   -0.1,  999.0,  999.0,    0.2,    0.2,    0.2,    0.2,    0.1,    0.1,    0.0,    0.1,    0.2,    0.1,    0.2,    0.2,    0.1,    0.3,    0.2,    0.1,  999.0,  999.0,  999.0,  999.0,  999.0,  999.0,    0.4,    0.3,    0.2,    0.3,  999.0,  999.0,  999.0
2007/07/23 05:10,    0.0,   -0.0,   -0.0,    0.0,   -0.0,    0.0,  999.0,   -0.0,    0.0,   -0.0,   -0.0,   -0.0,   -0.0,    0.0,    0.1,    0.1,    0.1,    0.3,    0.2,    0.3,    0.1,    0.3,    0.4,    0.2,    0.2,    0.2,    0.1,    0.0,    0.0,    0.0,    0.0,   -0.0,    0.0,   -0.0,   -0.1,   -0.1,   -0.1,   -0.0,  999.0,  999.0,  999.0,   -0.1,  999.0,  999.0,  999.0,  999.0,    0.1,  999.0,   -0.0,   -0.1,    0.2,   -0.1,   -0.2,   -0.2,   -0.2,   -0.3,   -0.3,   -0.3,   -0.3,   -0.3,   -0.2,   -0.2,   -0.2,   -0.3,   -0.1,   -0.2,    0.1,  999.0,  999.0,  999.0,  999.0,  999.0,  999.0,    0.1,    0.0,    0.1,  999.0,  999.0,  999.0
2007/07/23 05:20,   -0.0,    0.0,   -0.0,    0.0,   -0.0,   -0.0,  999.0,   -0.0,    0.0,   -0.0,    0.1,    0.1,    0.1,    0.1,    0.2,    0.2,    0.2,    0.2,    0.2,    0.2,    0.1,    0.2,    0.3,    0.0,    0.2,    0.2,    0.1,    0.1,    0.0,    0.0,    0.0,   -0.0,    0.0,   -0.0,    0.0,    0.0,    0.1,    0.0,   -0.1,    0.0,  999.0,   -0.1,  999.0,  999.0,   -0.3,    0.1,   -0.1,   -0.4,  999.0,   -0.3,  999.0,  999.0,  999.0,  999.0,  999.0,   -0.1,   -0.2,   -0.3,   -0.1,   -0.3,   -0.1,    0.0,   -0.1,   -0.1,   -0.1,   -0.1,   -0.1,   -0.3,  999.0,  999.0,  999.0,  999.0,  999.0,  999.0,    0.1,    0.1,   -0.1,  999.0,  999.0
2007/07/23 05:30,    0.0,   -0.0,    0.0,   -0.0,   -0.0,   -0.0,  999.0,    0.0,   -0.0,   -0.0,   -0.0,    0.0,    0.0,    0.0,    0.1,    0.1,    0.1,    0.2,    0.3,    0.4,    0.3,    0.4,    0.4,    0.3,    0.4,    0.4,    0.4,    0.1,    0.0,    0.1,    0.1,    0.2,    0.1,    0.1,    0.3,    0.3,    0.4,    0.1,    0.1,    0.2,    0.1,  999.0,    0.3,    0.1,    0.0,  999.0,    0.1,    0.1,  999.0,  999.0,  999.0,  999.0,  999.0,  999.0,  999.0,    0.0,   -0.1,   -0.1,   -0.6,    0.1,    0.0,   -0.0,   -0.1,   -0.1,   -0.3,   -0.0,   -0.1,   -0.1,   -0.3,  999.0,  999.0,  999.0,  999.0,  999.0,  999.0,   -0.1,   -0.1,   -0.1,  999.0
2007/07/23 05:40,   -0.0,   -0.0,   -0.0,   -0.0,   -0.0,   -0.0,  999.0,  999.0,   -0.0,   -0.0,   -0.0,   -0.0,    0.0,    0.1,    0.1,    0.1,    0.1,    0.2,    0.2,    0.2,    0.2,    0.2,    0.1,    0.0,    0.2,    0.2,    0.1,    0.1,    0.0,   -0.0,    0.0,    0.0,    0.1,    0.1,  999.0,  999.0,    0.3,    0.1,    0.2,   -0.1,    0.2,    0.2,   -0.1,    0.1,    0.0,   -0.2,   -0.2,   -0.2,  999.0,  999.0,  999.0,  999.0,    0.1,  999.0,  999.0,  999.0,  999.0,    0.1,   -0.0,    0.0,   -0.1,   -0.1,   -0.0,   -0.1,   -0.1,   -0.1,   -0.2,   -0.1,  999.0,  999.0,   -0.0,  999.0,  999.0,    0.2,   -0.1,    0.0,    0.0,  999.0,  999.0
2007/07/23 05:50,    0.0,   -0.0,   -0.0,   -0.0,   -0.0,    0.0,  999.0,  999.0,    0.0,    0.0,    0.1,    0.1,    0.2,    0.2,    0.2,    0.3,    0.3,    0.4,    0.2,    0.4,    0.2,    0.2,    0.2,    0.2,    0.3,    0.2,    0.2,    0.2,    0.0,    0.1,    0.1,    0.1,    0.0,    0.1,    0.1,    0.0,   -0.1,    0.0,    0.1,    0.1,    0.0,    0.2,   -0.1,    0.0,  999.0,   -0.1,    0.1,  999.0,    0.0,  999.0,  999.0,  999.0,  999.0,  999.0,  999.0,   -0.1,    0.1,  999.0,    0.1,   -0.0,   -0.1,  999.0,   -0.1,   -0.1,   -0.1,   -0.1,   -0.2,   -0.3,   -0.2,  999.0,   -0.1,   -0.1,  999.0,    0.1,  999.0,  999.0,    0.1,    0.2,    0.3
2007/07/23 06:00,    0.0,    0.0,    0.0,   -0.0,   -0.0,   -0.0,  999.0,    0.0,    0.0,    0.0,    0.0,    0.1,    0.2,    0.2,    0.2,    0.1,    0.2,    0.2,    0.1,    0.1,    0.1,    0.1,    0.2,    0.2,    0.2,    0.2,    0.2,    0.1,    0.1,    0.1,    0.1,    0.1,    0.2,    0.1,    0.2,    0.2,    0.2,    0.2,    0.2,    0.1,  999.0,    0.1,    0.2,  999.0,  999.0,   -0.0,    0.1,   -0.1,    0.1,  999.0,   -0.1,    0.1,  999.0,  999.0,  999.0,  999.0,  999.0,  999.0,    0.3,    0.2,   -0.1,    0.2,   -0.1,    0.0,    0.2,    0.0,   -0.1,    0.2,    0.1,    0.1,    0.1,    0.1,  999.0,  999.0,  999.0,  999.0,  999.0,  999.0,  999.0
2007/07/23 06:10,   -0.0,   -0.0,   -0.0,   -0.1,   -0.0,   -0.0,  999.0,  999.0,    0.0,   -0.0,   -0.0,   -0.0,   -0.1,   -0.0,   -0.1,   -0.1,    0.0,   -0.0,   -0.1,   -0.0,   -0.1,    0.0,   -0.1,    0.1,    0.1,    0.1,    0.1,    0.1,    0.1,    0.1,    0.0,    0.1,    0.1,    0.1,    0.1,    0.0,    0.0,   -0.0,   -0.0,    0.4,    0.1,   -0.1,    0.1,    0.1,  999.0,  999.0,  999.0,    0.7,    0.1,    0.0,    0.0,    0.0,   -0.0,  999.0,   -0.1,    0.2,  999.0,    0.3,    0.0,    0.4,   -0.1,    0.1,    0.0,    0.1,    0.1,    0.1,  999.0,  999.0,    0.3,  999.0,  999.0,  999.0,  999.0,  999.0,  999.0,  999.0,  999.0,  999.0,  999.0
2007/07/23 06:20,   -6.1,   -6.3,   -4.5,   -3.9,   -6.3,   -6.2,   -6.1,   -6.2,   -5.6,   -4.6,   -4.5,   -4.5,   -4.5,   -4.4,   -4.5,   -4.4,   -4.4,   -4.2,   -4.1,   -5.1,   -4.1,   -4.0,   -3.9,   -3.9,   -3.8,   -3.8,   -3.8,   -3.8,   -3.8,   -3.7,   -4.1,   -3.8,   -3.5,   -3.4,   -3.3,   -3.5,   -3.4,   -3.4,   -3.4,   -2.1,   -2.5,   -2.7,   -2.4,   -2.6,   -1.8,   -1.1,   -0.8,   -0.7,   -0.8,   -0.5,   -0.5,   -0.5,   -0.5,   -0.4,   -0.2,   -0.1,   -0.1,    0.0,   -0.0,    0.0,    0.0,    0.0,   -0.0,   -0.1,   -0.1,   -0.1,   -0.1,   -0.1,   -0.0,  999.0,  999.0,  999.0,  999.0,  999.0,  999.0,  999.0,  999.0,  999.0,  999.0
2007/07/23 06:30,   -4.9,   -4.9,   -4.9,   -5.0,   -5.2,   -5.2,   -5.2,   -5.4,   -5.3,   -5.4,   -5.5,   -5.4,   -5.3,   -5.3,   -5.4,   -5.5,   -5.5,   -5.6,   -5.7,   -5.7,   -5.8,   -5.9,   -5.8,   -6.0,   -6.0,   -4.9,   -4.9,   -4.8,   -4.6,   -4.4,   -4.5,   -4.6,   -3.4,   -4.0,   -3.9,   -4.0,   -4.4,   -4.2,   -3.7,   -5.9,   -4.0,   -3.4,   -2.5,   -1.4,   -1.5,   -1.3,   -1.4,   -1.3,   -1.3,   -1.3,   -1.1,   -1.0,   -0.8,   -1.5,   -1.2,   -0.7,   -0.4,   -0.2,   -0.2,   -0.0,    0.0,    0.1,   -0.0,   -0.0,   -0.1,   -0.1,   -0.3,   -0.2,   -0.1,  999.0,  999.0,  999.0,   -0.2,  999.0,  999.0,  999.0,  999.0,  999.0,  999.0
2007/07/23 06:40,   -0.0,    0.0,   -0.0,    0.0,   -0.0,   -0.0,    0.0,    0.0,    0.0,    0.1,    0.2,    0.3,    0.3,    0.2,    0.3,    0.5,    0.3,    0.3,    0.3,    0.3,    0.4,    0.3,    0.2,    0.3,    0.3,    0.4,   -0.0,    0.2,    0.1,    0.3,    0.6,    0.6,    0.6,    0.5,    0.5,    0.5,    0.5,    0.2,    0.3,    0.2,    0.1,    0.2,    0.1,    0.1,    0.1,    0.2,    0.0,   -0.1,   -0.1,   -0.0,   -0.0,   -0.1,   -0.1,   -0.1,   -0.1,   -0.0,   -0.1,   -0.1,   -0.1,    0.1,    0.1,    0.1,    0.1,    0.1,    0.1,   -0.0,    0.1,   -0.0,   -0.4,  999.0,  999.0,  999.0,  999.0,  999.0,  999.0,  999.0,  999.0,  999.0,  999.0
2007/07/23 06:50,    0.0,    0.0,   -0.0,    0.0,    0.0,    0.0,  999.0,    0.0,    0.0,    0.0,    0.1,    0.1,    0.2,    0.2,    0.3,    0.2,    0.2,    0.3,    0.3,    0.3,    0.3,    0.2,    0.2,    0.2,    0.3,    0.2,    0.4,    0.2,    0.1,    0.3,    0.2,    0.4,    0.4,    0.3,    0.2,    0.1,    0.1,   -0.1,   -0.0,    0.1,    0.1,   -0.0,   -0.0,    0.0,   -0.0,   -0.0,   -0.1,   -0.0,   -0.0,   -0.0,   -0.0,    0.0,    0.1,   -0.0,    0.2,    0.2,    0.0,   -0.1,  999.0,  999.0,  999.0,  999.0,  999.0,  999.0,  999.0,   -0.1,   -0.0,   -0.0,   -0.0,    0.1,   -0.0,  999.0,  999.0,  999.0,    0.1,  999.0,  999.0,  999.0,  999.0
2007/07/23 07:00,   -0.7,   -0.4,   -0.9,   -0.5,   -0.4,   -0.4,   -1.4,   -0.7,   -0.4,   -0.5,   -0.6,   -0.6,   -0.7,   -0.6,   -0.6,   -0.6,   -0.5,   -0.5,   -0.4,   -0.5,   -0.4,   -0.4,   -0.3,   -0.3,   -0.3,   -0.3,   -0.2,   -0.2,   -0.0,   -0.0,    0.0,   -0.0,    0.1,   -0.0,    0.1,    0.1,    0.1,    0.1,   -0.0,   -0.0,   -0.0,    0.1,   -0.0,   -0.2,   -0.0,   -0.1,   -0.1,   -0.0,   -0.0,   -0.1,    0.2,    0.0,   -0.1,   -0.3,   -0.1,   -0.1,   -0.2,    0.0,   -0.1,   -0.5,  999.0,  999.0,  999.0,  999.0,  999.0,    0.1,    0.0,   -0.2,   -0.0,    0.1,   -0.0,    0.1,  999.0,  999.0,    0.1,  999.0,  999.0,  999.0,  999.0
2007/07/23 07:10,   -2.3,   -1.9,   -2.2,   -2.2,   -2.3,   -4.1,   -3.1,   -2.3,   -3.2,   -4.5,   -4.4,   -4.4,   -4.3,   -4.1,   -4.1,   -3.9,   -3.7,   -3.6,   -3.5,   -3.4,   -3.3,   -3.4,   -3.3,   -3.2,   -3.2,   -3.3,   -3.3,   -3.5,   -3.3,   -3.4,   -3.2,   -3.3,   -3.6,   -2.5,   -2.4,   -3.0,   -3.0,   -2.3,   -2.1,   -3.4,   -2.3,   -2.9,   -2.6,   -1.6,   -0.9,   -1.3,   -1.4,   -1.3,   -1.3,   -1.2,   -1.1,   -0.9,   -0.9,   -0.6,   -0.6,   -0.5,   -0.5,   -0.3,   -0.4,   -0.2,    0.2,   -0.1,  999.0,  999.0,  999.0,  999.0,  999.0,   -0.2,  999.0,  999.0,    0.1,  999.0,  999.0,  999.0,  999.0,  999.0,  999.0,  999.0,  999.0
2007/07/23 07:20,   -6.2,   -6.2,   -6.3,   -6.4,   -6.4,   -6.3,   -6.2,   -6.0,   -5.9,   -5.5,   -6.1,   -6.1,   -6.0,   -5.9,   -5.9,   -6.0,   -5.3,   -5.2,   -5.1,   -5.2,   -5.0,   -5.0,   -4.9,   -5.0,   -5.4,   -4.8,   -5.3,   -5.2,   -5.3,   -4.8,   -5.4,   -6.3,   -5.3,   -5.0,   -5.0,   -5.1,   -5.5,   -6.1,   -5.7,   -5.6,   -5.6,   -4.5,   -3.7,   -2.7,   -2.2,   -1.7,   -1.7,   -1.5,   -1.5,   -1.5,   -1.4,   -1.3,   -1.2,   -1.1,   -1.0,   -0.9,   -0.8,   -0.6,   -0.6,   -0.4,   -0.2,  999.0,  999.0,  999.0,  999.0,  999.0,  999.0,  999.0,  999.0,  999.0,  999.0,  999.0,  999.0,  999.0,  999.0,  999.0,  999.0,  999.0,   -0.6
2007/07/23 07:30,   -5.4,   -5.6,   -5.7,   -5.7,   -5.8,   -5.8,   -5.7,   -5.7,   -5.3,   -5.6,   -5.9,   -6.1,   -6.2,   -6.2,   -6.2,   -6.2,   -6.2,   -6.3,   -6.3,   -6.3,   -6.2,   -6.2,   -6.4,   -6.5,   -6.2,   -6.2,   -6.4,   -6.3,   -6.4,   -6.4,   -6.5,   -6.5,   -6.6,   -6.6,   -6.7,   -6.8,   -6.8,   -6.8,   -6.8,   -6.7,   -6.3,   -5.4,  999.0,  999.0,   -2.0,   -2.0,   -1.9,   -1.9,   -2.0,   -2.0,   -1.9,   -1.8,   -1.4,   -1.3,   -1.3,   -1.3,   -1.4,   -1.3,   -1.2,   -1.1,   -1.1,   -1.2,   -1.2,   -1.0,   -0.7,   -0.8,   -1.0,   -1.1,   -1.3,   -1.3,   -1.2,   -1.2,   -1.3,   -1.4,   -1.5,   -1.4,   -1.5,   -1.5,   -1.5
2007/07/23 07:40,   -4.9,   -4.9,   -4.8,   -4.9,   -4.9,   -4.9,   -4.8,   -4.8,   -4.8,   -4.7,   -4.7,   -4.7,   -4.6,   -4.5,   -4.5,   -4.6,   -4.6,   -4.6,   -4.5,   -4.5,   -4.6,   -4.7,   -4.6,   -4.7,   -4.7,   -4.7,   -4.6,   -4.7,   -4.3,   -4.6,   -4.4,   -4.9,   -4.6,   -4.2,   -4.4,   -4.4,   -4.6,   -4.3,   -4.5,   -4.6,   -4.4,   -4.7,   -3.6,   -2.6,   -1.9,   -1.8,   -1.8,   -1.7,   -1.7,   -1.6,   -1.6,   -1.6,   -1.5,   -1.5,   -1.6,   -1.5,   -1.4,   -1.4,   -1.4,   -1.3,   -1.3,   -1.3,   -1.2,   -1.3,   -1.4,   -1.3,   -1.3,   -1.2,   -1.2,   -1.2,   -1.2,   -1.2,   -1.2,   -1.1,   -1.2,   -1.2,   -1.3,   -1.3,   -1.4
2007/07/23 07:50,   -6.2,   -6.3,   -6.4,   -6.4,   -6.3,   -6.5,   -6.3,   -6.3,   -6.2,   -6.1,   -6.2,   -6.0,   -6.0,   -6.2,   -6.2,   -6.1,   -6.0,   -6.0,   -6.0,   -6.0,   -5.9,   -5.9,   -5.8,   -5.9,   -5.6,   -5.2,   -5.1,   -5.1,   -5.1,   -5.0,   -5.0,   -5.0,   -5.0,   -5.0,   -4.8,   -4.9,   -4.9,   -4.9,   -4.7,   -4.7,   -4.8,   -4.7,   -4.2,   -3.3,   -2.5,   -2.2,   -2.2,   -2.2,   -2.1,   -2.1,   -2.0,   -1.9,   -1.9,   -1.8,   -1.8,   -1.8,   -1.7,   -1.6,   -1.6,   -1.7,   -1.9,   -1.8,   -1.9,   -1.9,   -2.0,   -2.0,   -1.8,   -1.8,   -1.9,   -1.9,   -2.0,   -2.0,   -1.9,   -1.9,   -1.9,   -2.0,   -1.9,   -1.9,   -1.9
2007/07/23 08:00,   -4.4,   -4.4,   -5.5,   -4.7,   -5.3,   -5.3,   -6.3,   -6.3,   -5.5,   -6.0,   -6.2,   -5.9,   -5.7,   -5.6,   -5.7,   -5.1,   -4.9,   -4.6,   -4.8,   -4.7,   -4.9,   -5.1,   -5.1,   -5.2,   -5.3,   -5.7,   -5.7,   -5.8,   -5.6,   -5.7,   -5.7,   -5.6,   -5.6,   -5.6,   -5.7,   -5.9,   -5.8,   -5.9,   -5.7,   -5.2,   -5.5,   -5.2,   -4.3,   -3.2,   -2.5,   -2.1,   -2.0,   -2.0,   -1.9,   -1.9,   -1.9,   -1.9,   -2.0,   -2.0,   -2.1,   -2.3,   -2.4,   -2.6,   -2.7,   -2.7,   -2.6,   -2.6,   -2.5,   -2.5,   -2.4,   -2.3,   -2.3,   -2.1,   -1.9,   -1.8,   -1.8,   -1.7,   -1.6,   -1.4,   -1.3,   -1.2,   -1.1,   -1.0,   -0.8
2007/07/23 08:10,   -4.7,   -4.5,   -5.6,   -5.6,   -5.5,   -6.5,   -6.6,   -6.9,   -6.9,   -6.7,   -6.7,   -6.7,   -6.6,   -6.7,   -6.7,   -6.6,   -6.7,   -6.7,   -6.8,   -6.9,   -6.9,   -7.0,   -7.1,   -6.9,   -7.0,   -7.2,   -7.2,   -7.2,   -7.3,   -7.2,   -7.2,   -7.2,   -7.2,   -7.3,   -7.4,   -7.5,   -7.6,   -7.9,   -7.7,  999.0,   -6.6,   -5.3,   -4.0,   -3.2,   -2.7,   -2.4,   -2.3,   -2.4,   -2.4,   -2.5,   -2.6,   -2.8,   -2.7,   -2.8,   -2.8,   -3.0,   -2.9,   -2.7,   -2.7,   -2.5,   -2.4,   -2.3,   -2.5,   -2.5,   -2.5,   -2.5,   -2.5,   -2.4,   -2.3,   -2.2,   -2.1,   -1.9,   -1.8,   -1.7,   -1.6,   -1.5,   -1.4,   -1.3,   -1.3
2007/07/23 08:20,   -6.8,   -7.0,   -6.9,   -6.9,   -6.9,   -7.0,   -6.9,   -6.8,   -6.9,   -6.9,   -7.0,   -7.1,   -7.2,   -6.8,   -6.9,   -7.2,   -7.0,   -7.3,   -7.1,   -7.2,   -7.4,   -7.3,   -7.4,   -7.4,   -7.3,   -7.4,   -7.4,   -7.4,   -7.3,   -7.4,   -7.6,   -7.7,   -7.8,   -7.9,   -8.1,   -8.1,   -8.3,   -8.3,   -8.1,   -7.5,   -6.4,   -4.9,   -3.8,   -3.0,   -2.6,   -2.4,   -2.2,   -2.1,   -2.0,   -2.0,   -1.9,   -1.9,   -1.9,   -1.9,   -1.9,   -1.9,   -1.9,   -1.9,   -2.0,   -2.0,   -2.0,   -2.1,   -2.1,   -2.1,   -2.0,   -2.0,   -2.0,   -1.9,   -1.9,   -1.9,   -1.8,   -1.7,   -1.6,   -1.6,   -1.5,   -1.6,   -1.7,   -1.7,   -1.8
2007/07/23 08:30,   -6.1,   -6.2,   -6.3,   -6.2,   -6.1,   -6.0,   -6.1,   -6.1,   -6.0,   -6.0,   -6.0,   -6.0,   -6.0,   -6.0,   -6.0,   -6.0,   -6.1,   -6.2,   -6.2,   -6.3,   -6.3,   -6.3,   -6.4,   -6.5,   -6.5,   -6.5,   -6.5,   -6.5,   -6.6,   -6.7,   -6.8,   -6.9,   -7.0,   -7.0,   -7.1,   -7.2,   -7.3,   -7.5,   -7.5,   -7.0,   -6.3,   -5.3,  999.0,  999.0,  999.0,   -2.0,   -1.9,   -2.0,   -1.9,   -1.9,   -1.9,   -1.9,   -1.9,   -1.9,   -1.9,   -1.9,   -1.9,   -2.0,   -2.1,   -2.1,   -2.2,   -2.1,   -2.1,   -2.0,   -1.9,   -1.9,   -1.8,   -1.8,   -1.8,   -1.8,   -1.7,   -1.7,   -1.6,   -1.6,   -1.5,   -1.3,   -1.3,   -1.3,   -1.3
2007/07/23 08:40,   -0.0,   -0.0,   -1.9,  999.0,   -5.7,   -3.8,   -5.7,   -5.7,   -5.4,   -3.7,   -4.1,   -4.0,   -3.9,   -4.8,   -5.0,   -4.9,   -4.8,   -5.7,   -5.8,   -5.6,   -5.9,   -5.8,   -5.8,   -6.0,   -6.0,   -6.0,   -6.2,   -6.2,   -6.3,   -6.4,   -6.4,   -6.5,   -6.6,   -6.7,   -6.9,   -6.9,   -7.1,   -7.1,   -7.2,   -6.9,   -6.3,  999.0,  999.0,   -2.4,   -2.1,   -2.1,   -2.0,   -1.9,   -1.9,   -1.9,   -1.8,   -1.7,   -1.7,   -1.6,   -1.9,   -1.8,   -1.8,   -1.8,   -1.8,   -2.0,   -1.9,   -1.9,   -2.1,   -2.0,   -2.0,   -1.9,   -1.9,   -1.9,   -1.9,   -2.0,   -2.0,   -2.1,   -2.1,   -2.1,   -2.1,   -2.1,   -2.0,   -1.9,   -1.8
2007/07/23 08:50,  999.0,  999.0,  999.0,   -1.2,  999.0,   -2.1,  999.0,  999.0,   -5.1,   -3.9,   -4.3,   -4.2,   -3.6,   -4.2,   -4.5,   -5.7,   -5.7,   -5.8,   -5.8,   -5.9,   -6.0,   -6.0,   -6.1,   -6.3,   -6.2,   -6.3,   -6.4,   -6.4,   -6.4,   -6.6,   -6.6,   -6.6,   -6.8,   -6.8,   -6.9,   -6.9,   -6.8,   -7.0,   -7.1,   -7.0,   -6.7,  999.0,  999.0,   -2.1,   -1.6,   -1.7,   -1.8,   -1.9,   -1.9,   -1.9,   -1.8,   -1.8,   -1.8,   -1.8,   -1.8,   -1.8,   -1.8,   -1.8,   -1.6,   -1.6,   -1.6,   -1.6,   -1.7,   -1.8,   -1.9,   -2.0,   -2.1,   -2.2,   -2.3,   -2.4,   -2.4,   -2.4,   -2.3,   -2.4,   -2.3,   -2.2,   -2.1,   -2.0,   -1.9
2007/07/23 09:00,   -6.1,   -6.2,   -6.2,   -6.1,   -6.2,   -6.1,   -6.0,   -6.1,   -6.1,   -6.0,   -6.2,   -6.1,   -6.1,   -6.1,   -6.2,   -6.3,   -6.2,   -6.3,   -6.2,   -6.3,   -6.3,   -6.3,   -6.4,   -6.5,   -6.5,   -6.6,   -6.7,   -6.7,   -6.8,   -6.9,   -6.9,   -7.0,   -7.0,   -7.0,   -7.1,   -7.1,   -7.1,   -7.2,   -7.2,   -7.2,   -6.7,   -5.6,  999.0,   -2.3,   -1.7,   -1.7,   -1.8,   -1.8,   -1.9,   -1.9,   -1.9,   -1.9,   -1.9,   -1.8,   -1.8,   -1.7,   -1.7,   -1.7,   -1.6,   -1.6,   -1.5,   -1.5,   -1.5,   -1.6,   -1.6,   -1.7,   -1.7,   -1.8,   -1.9,   -2.0,   -2.0,   -2.0,   -2.0,   -2.0,   -2.1,   -2.0,   -2.0,   -1.9,   -1.8
2007/07/23 09:10,   -6.3,   -6.3,   -6.3,   -6.3,   -6.3,   -6.2,   -6.1,   -6.2,   -6.3,   -6.2,   -6.3,   -6.4,   -6.4,   -6.4,   -6.5,   -6.5,   -6.7,   -6.7,   -6.7,   -6.7,   -6.8,   -6.9,   -6.9,   -6.9,   -6.8,   -6.9,   -6.9,   -7.0,   -7.1,   -7.1,   -7.2,   -7.3,   -7.4,   -7.5,   -7.6,   -7.7,   -7.7,   -7.7,   -7.8,   -7.9,   -7.5,   -6.3,   -4.8,  999.0,   -2.2,   -1.9,   -1.8,   -1.8,   -1.8,   -1.8,   -1.9,   -1.9,   -1.8,   -1.8,   -1.8,   -1.7,   -1.6,   -1.6,   -1.5,   -1.5,   -1.4,   -1.4,   -1.4,   -1.3,   -1.3,   -1.3,   -1.6,   -1.6,   -1.8,   -1.8,   -1.7,   -1.7,   -1.7,   -1.7,   -1.7,   -1.7,   -1.7,   -1.6,   -1.6
2007/07/23 09:20,   -5.8,   -4.6,   -5.8,   -5.9,   -4.4,   -5.9,   -5.7,   -5.8,   -4.7,   -4.7,   -4.8,   -4.7,   -4.7,   -4.8,   -4.9,   -4.9,   -4.9,   -4.9,   -5.0,   -6.3,   -6.3,   -6.3,   -6.3,   -6.4,   -6.5,   -6.4,   -6.5,   -6.6,   -6.7,   -6.7,   -6.9,   -6.8,   -6.9,   -6.9,   -6.9,   -6.9,   -6.9,   -6.9,   -6.8,   -6.8,   -6.9,   -6.2,  999.0,  999.0,  999.0,   -1.5,   -1.4,   -1.4,   -1.5,   -1.6,   -1.6,   -1.5,   -1.5,   -1.5,   -1.5,   -1.4,   -1.4,   -1.3,   -1.3,   -1.2,   -1.1,   -1.1,   -1.1,   -1.1,   -1.0,   -1.0,   -1.1,   -1.1,   -1.2,   -1.2,   -1.3,   -1.3,   -1.4,   -1.4,   -1.4,   -1.4,   -1.5,   -1.5,   -1.5
2007/07/23 09:30,    0.0,    0.0,    0.0,    0.0,    0.0,    0.0,  999.0,  999.0,    0.0,    0.1,    0.2,    0.1,    0.3,    0.2,    0.3,    0.3,    0.4,    0.3,    0.3,    0.3,    0.2,    0.3,    0.2,    0.2,    0.2,    0.2,    0.2,    0.1,   -0.7,   -0.8,    0.0,    0.1,    0.2,    0.1,    0.1,   -1.0,   -0.8,   -0.8,   -0.0,    0.0,    0.0,   -0.0,   -0.1,    0.2,  999.0,    0.2,  999.0,   -0.2,   -0.2,   -0.3,   -0.4,   -0.4,   -0.5,   -0.6,   -1.0,   -0.7,   -0.6,   -0.5,   -0.6,   -0.7,   -0.5,   -0.8,   -0.6,   -0.5,   -0.7,   -0.6,   -1.0,   -1.1,   -1.1,   -1.2,   -1.1,   -1.2,   -1.2,   -1.3,   -1.3,   -1.4,   -1.4,   -1.4,   -1.4
2007/07/23 09:40,   -0.0,   -0.0,  999.0,   -0.0,    0.0,    0.0,  999.0,    0.1,    0.1,    0.0,    0.2,    0.4,    0.5,    0.3,    0.4,    0.4,    0.4,    0.5,    0.4,    0.4,    0.4,    0.4,    0.3,    0.3,    0.3,    0.4,    0.3,    0.2,    0.1,    0.1,    0.1,    0.2,    0.2,    0.2,    0.2,    0.1,    0.1,    0.2,    0.1,    0.0,    0.0,   -0.0,   -0.2,   -0.0,   -0.0,   -0.1,    0.0,   -0.3,   -0.3,   -0.4,   -0.4,   -0.3,   -0.4,   -0.2,   -0.2,   -0.2,   -0.1,   -0.1,   -0.1,   -0.2,   -0.2,   -0.1,  999.0,  999.0,   -0.1,    0.0,   -0.0,  999.0,  999.0,  999.0,  999.0,  999.0,   -0.9,   -1.1,   -1.1,   -1.1,   -0.8,   -1.1,   -1.2
2007/07/23 09:50,    0.0,   -0.0,   -0.0,   -0.0,    0.0,    0.0,  999.0,    0.0,   -1.0,   -1.5,   -1.7,   -1.5,   -1.4,   -1.5,   -1.4,   -0.6,    0.3,    0.4,    0.4,    0.4,    0.3,   -0.4,   -1.2,   -1.2,   -1.2,   -1.3,   -1.5,   -1.4,   -1.2,   -2.0,   -1.9,   -1.9,   -2.1,   -2.1,   -2.0,   -2.1,   -1.9,   -1.9,   -1.3,   -1.1,   -1.0,   -1.4,  999.0,  999.0,  999.0,   -0.6,   -0.8,   -0.7,   -0.6,   -0.7,   -0.6,   -0.6,   -0.6,   -0.6,   -0.4,  999.0,  999.0,  999.0,  999.0,   -0.2,   -0.0,    0.0,    0.5,  999.0,  999.0,  999.0,  999.0,  999.0,  999.0,  999.0,  999.0,  999.0,  999.0,  999.0,  999.0,  999.0,  999.0,  999.0,  999.0
2007/07/23 10:00,   -0.0,   -0.0,   -0.0,   -0.0,    0.0,    0.1,  999.0,    0.0,   -1.0,   -1.7,   -1.6,   -2.1,   -1.5,   -1.6,   -1.8,   -0.7,   -0.6,   -0.7,   -1.2,   -0.3,   -0.2,   -0.6,   -0.9,   -0.9,   -0.8,  999.0,   -0.9,   -0.9,   -0.9,   -1.0,   -1.2,   -1.3,   -1.3,   -1.4,   -1.9,   -1.5,   -2.0,   -1.9,   -1.9,   -1.8,   -1.7,   -1.6,   -1.6,   -1.6,   -1.1,   -0.9,   -0.7,   -0.8,   -0.6,   -0.6,   -0.5,  999.0,  999.0,   -0.2,  999.0,  999.0,  999.0,  999.0,  999.0,  999.0,  999.0,  999.0,  999.0,  999.0,  999.0,  999.0,  999.0,  999.0,  999.0,  999.0,  999.0,  999.0,  999.0,  999.0,  999.0,  999.0,  999.0,  999.0,  999.0
2007/07/23 10:10,    0.0,   -0.0,   -0.0,   -0.0,   -0.0,   -0.0,  999.0,    0.0,   -0.7,   -0.7,   -1.0,   -0.4,   -0.9,   -1.2,   -1.2,   -2.5,   -2.6,   -2.2,   -2.2,   -2.1,   -2.1,   -2.1,   -2.0,   -2.1,   -1.7,   -1.9,   -2.0,   -2.0,   -2.3,   -2.3,   -2.2,   -2.5,   -2.5,   -2.5,   -2.5,   -2.4,   -2.4,   -2.4,   -2.2,   -2.2,   -2.0,   -2.0,   -1.9,   -2.0,   -1.5,   -1.2,   -1.1,   -0.9,   -0.8,   -0.3,   -0.3,   -0.3,  999.0,  999.0,  999.0,   -0.1,  999.0,  999.0,  999.0,  999.0,  999.0,  999.0,  999.0,  999.0,  999.0,  999.0,  999.0,  999.0,  999.0,  999.0,  999.0,  999.0,  999.0,  999.0,  999.0,  999.0,    0.1,  999.0,  999.0
2007/07/23 10:20,   -0.6,   -0.8,   -1.2,   -0.0,   -1.1,    0.0,  999.0,   -0.0,   -0.0,   -1.2,   -0.9,   -0.8,   -0.9,   -0.8,   -0.7,   -1.2,   -1.2,   -1.5,   -1.2,   -1.5,   -1.9,   -1.5,   -1.9,   -1.3,   -1.1,   -1.0,   -1.0,   -1.1,   -1.1,   -1.4,   -1.4,   -1.4,   -1.4,   -1.4,   -1.8,   -2.7,   -1.7,   -2.7,   -1.7,   -1.3,   -1.6,   -1.5,   -1.7,   -1.8,   -1.5,   -1.3,   -1.2,   -1.1,   -1.2,   -1.2,   -0.9,   -0.9,   -0.8,   -0.6,   -0.5,   -0.4,   -0.2,   -0.4,   -0.4,  999.0,  999.0,  999.0,  999.0,  999.0,    0.3,  999.0,  999.0,  999.0,  999.0,  999.0,  999.0,  999.0,  999.0,  999.0,  999.0,    0.3,    0.1,  999.0,  999.0
2007/07/23 10:30,   -0.0,   -0.0,    0.0,   -0.0,   -0.1,   -0.1,  999.0,   -0.0,   -0.0,   -0.0,    0.0,    0.0,    0.0,    0.1,   -0.0,    0.0,    0.1,    0.0,    0.1,    0.1,    0.1,    0.1,    0.1,    0.1,    0.1,    0.2,    0.2,    0.2,    0.1,    0.1,    0.1,    0.2,    0.2,    0.2,    0.2,    0.2,    0.2,    0.1,  999.0,    0.1,   -0.0,  999.0,    0.0,  999.0,   -0.3,   -0.1,   -0.4,   -0.9,   -0.9,   -1.1,   -1.3,   -1.2,   -0.9,   -0.8,   -0.6,   -0.4,   -0.2,   -0.2,  999.0,  999.0,  999.0,  999.0,  999.0,  999.0,  999.0,  999.0,  999.0,  999.0,  999.0,  999.0,  999.0,  999.0,  999.0,    0.1,  999.0,  999.0,  999.0,  999.0,  999.0
2007/07/23 10:40,   -0.0,    0.0,   -0.0,    0.0,   -0.0,   -0.0,    0.0,    0.0,    0.1,    0.1,    0.2,    0.1,    0.1,    0.1,    0.1,   -0.0,   -0.0,    0.1,    0.2,    0.1,    0.2,    0.1,    0.2,    0.2,    0.2,    0.3,    0.3,    0.2,    0.1,    0.2,    0.1,    0.3,    0.3,    0.3,    0.4,    0.4,    0.3,    0.2,    0.1,   -0.0,    0.1,   -0.0,  999.0,   -0.2,   -0.2,   -0.1,   -0.1,   -0.2,   -0.2,   -0.2,   -0.5,   -0.4,   -0.5,   -0.4,   -0.4,   -0.3,   -0.2,  999.0,  999.0,  999.0,  999.0,  999.0,  999.0,  999.0,  999.0,  999.0,  999.0,  999.0,  999.0,  999.0,  999.0,  999.0,  999.0,  999.0,  999.0,  999.0,  999.0,  999.0,   -0.6
2007/07/23 10:50,   -0.0,   -0.0,   -0.0,    0.0,   -0.0,   -0.0,  999.0,    0.0,    0.0,    0.1,    0.0,    0.0,    0.0,    0.1,    0.0,   -0.0,    0.0,    0.1,    0.1,    0.1,    0.1,    0.0,    0.0,    0.1,    0.0,    0.1,    0.1,    0.1,    0.0,    0.0,    0.0,    0.1,    0.0,    0.0,    0.1,    0.1,    0.1,    0.1,    0.1,    0.1,   -0.0,  999.0,   -0.2,  999.0,   -0.1,   -0.3,   -0.2,   -0.3,   -0.2,   -0.3,   -0.3,   -0.2,   -0.3,   -0.3,   -0.1,   -0.4,   -0.3,   -0.3,    0.0,    0.2,  999.0,    0.1,    0.0,  999.0,  999.0,  999.0,  999.0,    0.0,   -0.4,  999.0,  999.0,  999.0,  999.0,    0.1,    0.1,   -0.2,  999.0,  999.0,  999.0
2007/07/23 11:00,   -0.0,   -0.1,   -0.0,   -0.0,   -0.0,   -0.0,  999.0,   -0.0,   -0.0,   -0.0,   -0.1,    0.0,    0.0,    0.0,    0.0,   -0.0,   -0.0,    0.0,    0.0,    0.1,    0.0,   -0.0,    0.1,    0.1,    0.2,    0.2,    0.2,    0.1,    0.1,    0.1,    0.0,    0.0,    0.1,    0.1,    0.1,    0.2,    0.2,    0.1,    0.1,   -0.0,    0.1,    0.2,    0.1,    0.1,  999.0,   -0.1,  999.0,    0.1,    0.0,   -0.0,   -0.2,  999.0,   -0.3,   -0.2,  999.0,  999.0,   -0.1,  999.0,  999.0,  999.0,   -0.0,   -0.0,    0.1,  999.0,  999.0,   -0.1,  999.0,  999.0,  999.0,  999.0,  999.0,  999.0,    0.1,    0.1,  999.0,  999.0,  999.0,  999.0,  999.0
2007/07/23 11:10,   -0.0,    0.0,    0.0,    0.0,   -0.0,    0.1,  999.0,   -0.0,    0.0,    0.0,    0.0,    0.0,    0.1,    0.1,    0.0,    0.0,    0.0,   -0.0,    0.0,    0.0,   -0.0,   -0.1,    0.0,    0.1,    0.2,    0.2,    0.1,    0.0,    0.0,    0.0,    0.0,    0.0,    0.1,    0.1,   -0.0,   -0.0,    0.0,   -0.0,   -0.1,   -0.1,   -0.0,   -0.1,  999.0,  999.0,  999.0,  999.0,  999.0,    0.1,   -0.1,    0.0,    0.0,    0.0,   -0.0,    0.0,  999.0,  999.0,    0.1,  999.0,  999.0,  999.0,    0.2,  999.0,  999.0,   -0.0,  999.0,  999.0,  999.0,  999.0,  999.0,  999.0,  999.0,  999.0,    0.1,  999.0,  999.0,  999.0,  999.0,  999.0,  999.0
2007/07/23 11:20,   -0.0,   -0.0,    0.0,   -0.0,    0.0,   -0.0,  999.0,    0.0,   -0.0,   -0.0,   -0.0,   -0.0,   -0.0,   -0.0,   -0.0,   -0.0,    0.0,   -0.0,    0.0,   -0.0,   -0.1,   -0.1,    0.1,   -0.0,    0.1,    0.1,    0.1,    0.1,    0.1,    0.1,    0.0,    0.0,    0.1,    0.2,    0.2,    0.1,    0.1,    0.1,    0.1,    0.1,    0.0,   -0.0,    0.2,  999.0,  999.0,   -0.1,   -0.1,  999.0,    0.0,    0.0,   -0.0,    0.1,    0.0,    0.0,  999.0,   -0.2,  999.0,  999.0,  999.0,  999.0,    0.3,    0.3,    0.2,    0.1,    0.4,    0.0,  999.0,  999.0,  999.0,  999.0,  999.0,  999.0,  999.0,  999.0,  999.0,   -0.0,   -0.0,  999.0,  999.0
2007/07/23 11:30,   -0.0,   -0.1,   -0.1,   -0.2,   -0.1,   -0.0,  999.0,    0.0,   -0.0,   -0.0,    0.0,    0.0,   -0.0,   -0.0,    0.0,    0.0,   -0.0,   -0.0,    0.0,   -0.0,    0.0,    0.0,    0.0,   -0.0,   -0.0,   -0.0,    0.0,    0.0,    0.0,    0.0,    0.0,    0.0,    0.0,    0.1,    0.1,    0.2,    0.1,    0.1,    0.1,    0.1,    0.1,    0.0,    0.1,  999.0,  999.0,  999.0,   -0.0,   -0.1,   -0.0,   -0.0,   -0.1,   -0.0,    0.0,    0.1,    0.1,    0.1,  999.0,  999.0,  999.0,    0.1,    0.1,   -0.0,    0.2,   -0.0,   -0.2,   -0.0,    0.3,    0.2,    0.2,    0.1,  999.0,  999.0,  999.0,  999.0,  999.0,    0.1,  999.0,   -0.2,   -0.2
2007/07/23 11:40,   -0.0,    0.0,   -0.0,   -0.0,   -0.1,   -0.1,  999.0,   -0.0,   -0.0,   -0.0,   -0.0,   -0.1,   -0.1,    0.0,   -0.0,   -0.0,   -0.0,   -0.0,   -0.0,    0.0,   -0.1,    0.0,    0.0,    0.0,    0.0,    0.0,    0.1,    0.0,    0.0,    0.0,    0.0,    0.0,    0.0,    0.0,    0.1,    0.1,    0.0,    0.0,    0.1,    0.1,    0.1,    0.1,  999.0,  999.0,  999.0,    0.0,   -0.0,   -0.1,    0.1,    0.0,    0.2,    0.2,    0.1,  999.0,    0.2,    0.1,    0.3,  999.0,  999.0,    0.1,    0.1,    0.2,    0.1,    0.1,   -0.0,    0.0,  999.0,    0.1,   -0.0,  999.0,  999.0,  999.0,  999.0,  999.0,   -0.3,  999.0,  999.0,  999.0,  999.0
2007/07/23 11:50,   -0.0,   -0.0,    0.0,   -0.0,   -0.1,    0.0,  999.0,   -0.0,  999.0,   -0.0,    0.0,   -0.0,    0.0,   -0.0,   -0.0,    0.0,    0.0,    0.0,    0.1,    0.1,    0.1,    0.0,    0.1,    0.0,    0.2,    0.0,    0.0,    0.0,    0.0,    0.0,    0.0,    0.0,    0.0,    0.0,    0.1,    0.1,    0.1,    0.1,    0.0,    0.1,    0.0,    0.0,  999.0,    0.1,    0.1,  999.0,    0.2,    0.2,    0.1,    0.0,    0.0,  999.0,   -0.1,    0.1,    0.1,    0.1,    0.2,   -0.1,   -0.1,  999.0,  999.0,  999.0,    0.1,   -0.1,  999.0,  999.0,  999.0,   -0.2,    0.0,   -0.3,   -0.1,  999.0,  999.0,  999.0,    0.1,  999.0,  999.0,   -0.0,    0.1
2007/07/23 12:00,   -0.0,   -0.0,   -0.0,   -0.1,   -0.1,   -0.1,  999.0,   -0.0,   -0.0,    0.0,    0.1,    0.0,    0.0,    0.0,    0.0,    0.1,    0.1,    0.0,    0.0,    0.0,    0.0,    0.1,    0.2,    0.2,    0.2,    0.2,    0.1,    0.1,    0.1,   -0.0,    0.0,    0.0,    0.0,    0.0,    0.0,    0.0,    0.0,   -0.1,    0.0,   -0.1,   -0.1,    0.1,  999.0,   -0.1,   -0.1,   -0.2,   -0.0,   -0.0,    0.0,    0.0,    0.1,  999.0,  999.0,    0.1,    0.2,    0.0,    0.2,   -0.0,    0.2,  999.0,  999.0,  999.0,  999.0,  999.0,    0.2,  999.0,   -0.0,    0.1,   -0.0,  999.0,    0.1,  999.0,  999.0,    0.2,    0.1,    0.1,  999.0,  999.0,  999.0
2007/07/23 12:10,    0.0,   -0.1,   -0.1,   -0.0,   -0.0,   -0.0,  999.0,   -0.0,   -0.0,    0.0,    0.0,    0.0,   -0.0,   -0.0,    0.0,    0.0,    0.0,    0.0,    0.0,    0.0,    0.0,    0.1,    0.2,    0.2,    0.2,    0.2,    0.1,    0.1,    0.0,    0.0,    0.0,    0.0,    0.0,    0.1,    0.2,    0.0,    0.1,    0.2,    0.2,    0.1,    0.1,  999.0,  999.0,    0.2,    0.1,    0.1,    0.0,    0.1,    0.1,    0.0,    0.1,  999.0,    0.4,    0.1,    0.1,    0.1,    0.1,    0.1,    0.2,    0.1,  999.0,  999.0,  999.0,  999.0,  999.0,  999.0,   -0.2,   -0.1,  999.0,  999.0,  999.0,  999.0,  999.0,   -0.1,    0.2,  999.0,  999.0,  999.0,  999.0
2007/07/23 12:20,   -0.0,    0.0,   -0.0,   -0.1,   -0.0,   -0.0,  999.0,    0.0,   -0.0,   -0.0,    0.0,    0.1,    0.0,    0.1,    0.1,    0.1,    0.0,    0.1,    0.2,    0.1,    0.1,    0.1,    0.1,    0.1,    0.1,    0.1,    0.1,    0.0,    0.0,    0.0,    0.0,    0.0,    0.0,    0.0,    0.1,    0.0,   -0.0,   -0.0,    0.2,    0.1,   -0.1,  999.0,  999.0,  999.0,    0.1,    0.0,    0.0,    0.0,    0.1,    0.2,    0.1,   -0.0,    0.1,    0.0,   -0.0,   -0.0,    0.2,  999.0,  999.0,   -0.0,  999.0,  999.0,  999.0,  999.0,  999.0,  999.0,  999.0,  999.0,  999.0,  999.0,  999.0,  999.0,  999.0,  999.0,  999.0,  999.0,  999.0,  999.0,  999.0
2007/07/23 12:30,    0.0,    0.0,    0.0,    0.0,   -0.0,   -0.0,  999.0,  999.0,  999.0,   -0.0,    0.0,    0.0,    0.0,    0.0,    0.1,    0.1,    0.0,    0.1,    0.1,    0.1,    0.1,    0.1,    0.1,    0.0,    0.0,    0.1,    0.0,    0.0,    0.0,    0.0,    0.0,    0.0,   -0.0,   -0.0,   -0.1,   -0.1,  999.0,   -0.1,   -0.1,   -0.2,  999.0,  999.0,  999.0,  999.0,  999.0,    0.0,    0.0,    0.0,    0.1,   -0.0,   -0.1,  999.0,    0.4,    0.1,   -0.3,    0.1,    0.2,    0.1,  999.0,   -0.0,   -0.0,  999.0,  999.0,  999.0,  999.0,  999.0,   -0.1,  999.0,  999.0,  999.0,  999.0,  999.0,   -0.4,   -0.4,  999.0,  999.0,  999.0,  999.0,  999.0
2007/07/23 12:40,   -0.0,   -0.0,   -0.0,   -0.0,    0.0,    0.0,  999.0,  999.0,  999.0,    0.0,   -0.0,    0.0,   -0.0,    0.0,    0.0,    0.0,    0.0,    0.0,    0.1,    0.1,    0.1,    0.1,    0.1,    0.1,    0.1,    0.1,    0.0,    0.0,    0.0,    0.0,   -0.0,   -0.0,   -0.0,    0.1,    0.0,    0.0,    0.0,   -0.0,    0.2,    0.0,   -0.0,  999.0,  999.0,  999.0,  999.0,    0.2,    0.1,    0.0,    0.1,    0.1,    0.0,    0.3,    0.0,    0.2,    0.1,  999.0,   -0.0,    0.1,    0.1,    0.2,    0.0,    0.1,    0.2,  999.0,  999.0,  999.0,  999.0,  999.0,  999.0,  999.0,  999.0,  999.0,  999.0,   -0.5,   -0.4,  999.0,  999.0,  999.0,  999.0
2007/07/23 12:50,   -0.0,   -0.0,   -0.0,    0.0,    0.0,    0.0,  999.0,    0.0,  999.0,    0.0,    0.0,   -0.0,    0.0,    0.0,    0.0,    0.0,    0.1,    0.0,    0.1,    0.2,    0.0,    0.1,    0.1,    0.1,    0.1,    0.1,    0.1,    0.0,    0.0,    0.0,    0.0,   -0.0,    0.1,    0.1,    0.2,    0.2,    0.1,    0.0,    0.2,    0.1,    0.1,  999.0,  999.0,  999.0,  999.0,    0.2,    0.1,    0.1,    0.2,    0.2,    0.2,    0.1,    0.1,    0.0,    0.1,    0.1,   -0.1,    0.1,    0.1,   -0.0,    0.2,    0.1,   -0.1,  999.0,  999.0,  999.0,  999.0,  999.0,  999.0,  999.0,  999.0,  999.0,  999.0,   -0.2,  999.0,  999.0,  999.0,  999.0,  999.0
2007/07/23 13:00,   -0.0,   -0.1,   -0.0,   -0.1,   -0.1,   -0.0,  999.0,  999.0,    0.0,    0.0,    0.0,   -0.0,    0.0,    0.0,    0.0,    0.0,    0.0,    0.1,    0.1,    0.1,    0.1,    0.3,    0.2,    0.2,    0.1,    0.0,    0.1,    0.0,    0.0,    0.0,    0.1,    0.1,    0.1,    0.2,    0.1,    0.1,   -0.0,    0.2,  999.0,    0.0,  999.0,   -0.1,   -0.1,    0.0,    0.1,   -0.0,    0.0,   -0.0,    0.1,   -0.1,   -0.1,   -0.1,   -0.2,   -0.1,   -0.1,   -0.2,   -0.1,   -0.2,   -0.1,   -0.1,   -0.1,    0.0,   -0.0,  999.0,  999.0,  999.0,    0.1,    0.1,    0.0,  999.0,  999.0,  999.0,   -0.1,  999.0,  999.0,  999.0,  999.0,  999.0,  999.0
2007/07/23 13:10,   -0.1,   -0.0,   -0.1,   -0.1,   -0.1,   -0.0,  999.0,  999.0,  999.0,   -0.0,   -0.0,    0.0,    0.0,    0.0,    0.0,    0.0,    0.1,    0.1,    0.1,    0.2,    0.3,    0.3,    0.3,    0.1,    0.1,    0.1,    0.1,    0.0,    0.0,    0.1,    0.0,    0.1,    0.0,    0.1,    0.2,    0.2,    0.0,    0.0,    0.1,  999.0,  999.0,  999.0,  999.0,  999.0,    0.1,   -0.1,   -0.1,    0.0,   -0.1,   -0.2,   -0.2,   -0.1,   -0.1,   -0.1,    0.0,   -0.0,    0.0,    0.0,   -0.0,   -0.1,   -0.1,   -0.2,   -0.3,  999.0,  999.0,    0.0,    0.3,    0.4,    0.4,  999.0,  999.0,  999.0,  999.0,  999.0,  999.0,  999.0,  999.0,  999.0,  999.0
2007/07/23 13:20,   -0.0,   -0.0,   -0.0,   -0.0,   -0.0,   -0.0,    0.0,  999.0,  999.0,   -0.0,   -0.0,    0.0,    0.0,    0.0,    0.0,    0.0,    0.0,    0.0,    0.1,    0.0,    0.1,    0.2,    0.2,    0.2,    0.3,    0.2,    0.1,    0.1,    0.1,    0.0,    0.0,    0.0,   -0.0,   -0.0,   -0.1,   -0.1,   -0.2,   -0.2,   -0.1,   -0.0,  999.0,  999.0,   -0.0,   -0.0,   -0.0,   -0.1,   -0.2,   -0.0,   -0.0,   -0.1,   -0.0,   -0.0,    0.0,    0.1,    0.2,   -0.0,   -0.0,   -0.1,   -0.0,   -0.2,   -0.1,   -0.3,   -0.2,   -0.2,  999.0,    0.1,  999.0,  999.0,    0.3,  999.0,  999.0,    0.0,  999.0,  999.0,  999.0,    0.0,  999.0,  999.0,  999.0
2007/07/23 13:30,    0.0,    0.0,   -0.0,   -0.1,   -0.0,   -0.2,   -0.0,   -0.0,   -0.0,    0.0,    0.0,   -0.0,   -0.0,    0.0,    0.0,    0.0,    0.0,    0.0,    0.0,    0.1,    0.1,    0.1,    0.2,    0.2,    0.2,    0.1,    0.1,    0.0,    0.0,    0.0,    0.0,    0.0,    0.0,    0.0,    0.0,   -0.0,    0.0,   -0.1,   -0.0,   -0.1,  999.0,  999.0,  999.0,  999.0,    0.0,   -0.0,   -0.1,    0.1,    0.1,    0.1,  999.0,   -0.0,    0.1,   -0.1,    0.1,    0.1,    0.1,   -0.0,   -0.1,   -0.2,   -0.0,   -0.2,   -0.1,    0.0,  999.0,  999.0,  999.0,  999.0,    0.1,    0.2,  999.0,  999.0,  999.0,  999.0,  999.0,  999.0,  999.0,  999.0,  999.0
2007/07/23 13:40,   -0.0,   -0.0,    0.0,   -0.0,   -0.1,    0.0,   -0.0,    0.0,    0.0,    0.0,    0.0,    0.0,    0.1,    0.0,    0.0,   -0.0,    0.0,    0.0,    0.1,    0.2,    0.2,    0.4,    0.4,    0.4,    0.3,    0.2,    0.1,    0.1,    0.1,    0.1,    0.1,    0.1,    0.2,    0.0,    0.1,    0.1,    0.0,    0.1,   -0.1,   -0.0,   -0.0,  999.0,   -0.2,  999.0,    0.0,    0.1,  999.0,    0.1,    0.1,    0.1,  999.0,  999.0,  999.0,    0.2,    0.1,    0.1,    0.2,  999.0,  999.0,  999.0,  999.0,  999.0,   -0.0,   -0.0,   -0.0,  999.0,  999.0,  999.0,  999.0,  999.0,  999.0,  999.0,  999.0,  999.0,  999.0,  999.0,  999.0,  999.0,  999.0
2007/07/23 13:50,    0.0,   -0.0,   -0.0,   -0.1,   -0.1,   -0.0,  999.0,   -0.0,   -0.0,   -0.1,   -0.1,   -0.1,   -0.1,    0.0,    0.1,    0.1,    0.1,    0.1,    0.2,    0.2,    0.2,    0.2,    0.2,    0.2,    0.2,    0.2,    0.2,    0.0,    0.1,    0.0,    0.1,    0.1,    0.0,    0.1,    0.1,   -0.0,    0.0,   -0.1,    0.0,   -0.1,  999.0,   -0.2,   -0.2,  999.0,   -0.3,   -0.3,   -0.3,   -0.3,   -0.5,   -0.5,   -0.4,  999.0,  999.0,   -0.1,   -0.3,   -0.1,   -0.1,   -0.2,   -0.1,   -0.2,   -0.2,    0.1,  999.0,  999.0,   -0.0,    0.0,  999.0,  999.0,  999.0,  999.0,  999.0,  999.0,  999.0,  999.0,  999.0,  999.0,  999.0,  999.0,  999.0
2007/07/23 14:00,   -0.0,   -0.0,   -0.0,   -0.0,   -0.0,   -0.0,   -0.0,   -0.0,    0.0,    0.0,    0.1,    0.0,    0.1,   -0.0,    0.0,    0.0,    0.1,    0.0,    0.0,    0.1,    0.0,    0.1,    0.1,    0.1,    0.2,    0.2,    0.2,    0.1,    0.1,    0.1,    0.2,    0.1,    0.1,    0.0,    0.1,    0.1,    0.1,    0.2,    0.2,    0.0,  999.0,   -0.0,    0.1,   -0.2,    0.1,    0.1,   -0.1,  999.0,  999.0,  999.0,    0.0,    0.1,    0.1,    0.3,    0.1,    0.3,    0.3,    0.1,    0.1,    0.1,  999.0,  999.0,  999.0,  999.0,  999.0,   -0.0,  999.0,  999.0,  999.0,  999.0,  999.0,  999.0,  999.0,  999.0,  999.0,  999.0,  999.0,    0.0,  999.0
2007/07/23 14:10,   -0.0,   -0.0,   -0.0,   -0.1,   -0.0,   -0.1,   -0.1,   -0.0,    0.0,   -0.0,    0.0,    0.1,    0.0,    0.0,    0.0,   -0.0,   -0.0,   -0.0,    0.0,    0.0,    0.0,    0.1,    0.1,    0.1,    0.2,    0.2,    0.1,    0.1,    0.0,    0.1,    0.1,    0.1,    0.0,    0.0,    0.1,    0.1,    0.0,  999.0,  999.0,   -0.1,  999.0,  999.0,  999.0,  999.0,  999.0,    0.1,    0.1,    0.4,    0.4,  999.0,  999.0,    0.4,    0.1,    0.3,    0.4,    0.4,    0.2,    0.2,    0.1,  999.0,  999.0,  999.0,  999.0,  999.0,  999.0,  999.0,  999.0,  999.0,  999.0,  999.0,  999.0,  999.0,  999.0,  999.0,  999.0,  999.0,  999.0,  999.0,  999.0
2007/07/23 14:20,   -0.0,   -0.0,   -0.0,    0.1,   -0.1,    0.0,   -0.1,    0.0,    0.1,    0.1,    0.2,    0.2,    0.0,    0.0,    0.0,    0.0,   -0.0,   -0.1,    0.0,    0.1,    0.2,    0.1,    0.2,    0.1,    0.1,    0.1,    0.0,    0.0,    0.0,   -0.0,   -0.0,    0.0,   -0.0,   -0.0,   -0.0,    0.1,    0.1,    0.1,   -0.0,    0.1,  999.0,    0.1,    0.0,    0.1,    0.0,   -0.0,    0.1,    0.1,    0.1,    0.1,  999.0,  999.0,    0.3,    0.0,    0.2,  999.0,  999.0,    0.1,    0.2,    0.3,    0.1,  999.0,  999.0,  999.0,  999.0,  999.0,  999.0,  999.0,  999.0,  999.0,  999.0,  999.0,  999.0,   -1.1,  999.0,   -1.0,   -0.7,   -0.9,  999.0
2007/07/23 14:30,   -0.0,   -0.0,   -0.0,   -0.1,    0.0,    0.0,   -0.0,    0.0,    0.2,    0.1,    0.0,    0.0,   -0.0,   -0.0,    0.0,    0.0,    0.0,    0.0,    0.0,    0.2,    0.0,    0.1,    0.2,    0.3,    0.2,    0.1,    0.1,    0.1,    0.0,    0.0,   -0.0,    0.0,   -0.0,    0.0,    0.2,    0.2,    0.2,    0.2,    0.2,    0.3,    0.2,    0.2,    0.2,    0.1,    0.2,    0.2,    0.2,    0.2,  999.0,  999.0,  999.0,  999.0,  999.0,  999.0,  999.0,  999.0,    0.0,    0.1,    0.1,  999.0,  999.0,    0.1,  999.0,  999.0,  999.0,  999.0,   -0.1,  999.0,  999.0,  999.0,  999.0,  999.0,  999.0,  999.0,  999.0,  999.0,  999.0,  999.0,  999.0
2007/07/23 14:40,    0.0,   -0.0,   -0.0,   -0.0,   -0.1,   -0.1,  999.0,   -0.1,   -0.0,    0.0,   -0.0,   -0.0,    0.0,    0.0,    0.0,    0.0,   -0.0,   -0.0,   -0.0,   -0.0,    0.1,    0.0,    0.1,    0.1,    0.1,    0.0,    0.0,    0.0,    0.0,    0.0,    0.0,    0.0,   -0.0,    0.0,    0.1,    0.1,    0.2,    0.1,    0.2,    0.2,    0.2,    0.2,    0.2,    0.2,    0.2,    0.1,    0.2,    0.2,    0.0,    0.2,  999.0,  999.0,  999.0,  999.0,  999.0,  999.0,    0.3,    0.2,    0.1,  999.0,  999.0,    0.2,    0.0,    0.0,  999.0,    0.1,    0.1,    0.0,  999.0,  999.0,  999.0,  999.0,  999.0,  999.0,  999.0,  999.0,  999.0,  999.0,   -0.1
2007/07/23 14:50,   -0.0,   -0.0,   -0.0,   -0.1,   -0.0,   -0.0,  999.0,    0.0,   -0.0,   -0.0,   -0.0,   -0.0,   -0.0,   -0.0,    0.0,    0.0,    0.0,    0.1,    0.1,    0.1,    0.1,    0.1,    0.1,    0.0,    0.1,    0.0,    0.0,   -0.0,   -0.0,    0.0,    0.0,    0.0,    0.0,    0.0,   -0.0,    0.0,    0.1,    0.1,    0.2,    0.0,    0.2,    0.1,   -0.0,    0.0,   -0.0,   -0.1,   -0.1,   -0.1,   -0.1,   -0.0,   -0.0,  999.0,  999.0,  999.0,  999.0,  999.0,  999.0,    0.1,   -0.0,  999.0,   -0.2,  999.0,    0.3,  999.0,  999.0,    0.1,    0.0,   -0.0,  999.0,  999.0,  999.0,  999.0,  999.0,  999.0,  999.0,  999.0,  999.0,  999.0,  999.0
2007/07/23 15:00,   -0.0,   -0.0,   -0.0,   -0.1,   -0.1,   -0.0,    0.0,   -0.0,    0.0,    0.0,   -0.0,    0.0,   -0.0,    0.0,    0.0,    0.1,    0.1,    0.1,    0.1,    0.2,    0.1,    0.2,    0.3,    0.2,    0.1,    0.2,    0.1,    0.0,    0.0,   -0.0,   -0.0,   -0.0,   -0.0,    0.0,   -0.0,   -0.1,   -0.1,   -0.0,    0.1,   -0.0,    0.1,    0.1,    0.1,    0.2,    0.1,    0.1,    0.1,    0.2,    0.1,   -0.0,  999.0,    0.2,  999.0,    0.2,  999.0,    0.2,  999.0,    0.0,    0.1,  999.0,  999.0,   -0.1,  999.0,   -0.3,   -0.2,  999.0,   -0.0,   -0.3,   -0.2,  999.0,   -0.0,  999.0,  999.0,  999.0,  999.0,   -0.1,  999.0,  999.0,   -0.1
2007/07/23 15:10,   -0.0,    0.0,   -0.0,   -0.0,   -0.1,   -0.1,   -0.1,   -0.0,   -0.0,    0.0,    0.0,    0.0,    0.1,    0.0,    0.1,    0.0,    0.1,    0.1,    0.2,    0.1,    0.1,    0.0,    0.0,    0.1,    0.0,    0.1,    0.1,    0.0,    0.0,    0.0,   -0.0,   -0.0,    0.0,   -0.0,    0.0,    0.0,   -0.0,    0.0,   -0.0,   -0.0,    0.1,    0.0,    0.2,    0.1,   -0.0,  999.0,    0.1,    0.0,   -0.0,    0.1,    0.0,    0.0,    0.0,    0.2,    0.2,    0.2,  999.0,    0.1,    0.3,    0.2,  999.0,  999.0,  999.0,    0.1,   -0.0,   -0.0,  999.0,  999.0,    0.1,  999.0,  999.0,  999.0,  999.0,  999.0,  999.0,  999.0,  999.0,  999.0,  999.0
2007/07/23 15:20,    0.0,    0.0,   -0.0,   -0.0,   -0.0,   -0.1,   -0.2,   -0.2,   -0.1,   -0.1,   -0.1,   -0.1,   -0.1,   -0.1,   -0.1,    0.0,    0.0,   -0.0,    0.0,   -0.0,   -0.0,    0.1,    0.1,    0.1,    0.1,    0.2,    0.1,    0.1,    0.0,    0.0,    0.0,    0.0,    0.0,    0.0,    0.1,    0.2,    0.1,    0.1,    0.4,  999.0,  999.0,    0.1,    0.1,    0.1,  999.0,    0.4,  999.0,  999.0,   -0.0,    0.0,    0.1,    0.1,    0.1,    0.0,    0.3,    0.1,    0.1,    0.5,    0.1,  999.0,  999.0,    0.2,    0.3,    0.2,    0.3,    0.1,    0.1,  999.0,  999.0,    0.1,  999.0,  999.0,  999.0,  999.0,  999.0,  999.0,  999.0,  999.0,  999.0
2007/07/23 15:30,    0.0,   -0.0,   -0.0,   -0.0,   -0.0,   -0.0,   -0.0,    0.0,   -0.0,    0.0,   -0.1,   -0.1,    0.2,    0.2,    0.1,    0.1,    0.1,    0.4,    0.2,    0.4,    0.4,    0.2,    0.3,    0.3,    0.3,    0.3,    0.1,    0.1,    0.0,    0.0,    0.0,   -0.0,    0.0,   -0.0,    0.0,   -0.0,   -0.0,   -0.1,   -0.1,   -0.1,  999.0,    0.0,    0.2,   -0.0,   -0.0,    0.0,   -0.1,   -0.1,   -0.1,   -0.2,   -0.0,   -0.1,   -0.0,    0.0,    0.2,    0.1,    0.1,    0.1,    0.3,    0.2,    0.4,    0.3,    0.2,  999.0,    0.3,    0.0,  999.0,    0.0,  999.0,  999.0,  999.0,  999.0,  999.0,  999.0,  999.0,  999.0,  999.0,   -0.0,    0.1
2007/07/23 15:40,   -0.0,    0.0,   -0.0,   -0.0,   -0.0,    0.0,    0.0,   -0.0,   -0.0,   -0.1,    0.0,   -0.1,   -0.0,    0.0,   -0.0,    0.0,   -0.0,    0.0,   -0.1,    0.2,    0.1,    0.1,    0.0,    0.0,    0.0,    0.0,    0.0,    0.0,    0.0,    0.0,    0.0,    0.0,   -0.0,   -0.0,   -0.0,   -0.0,    0.0,    0.0,    0.0,    0.2,    0.0,    0.0,   -0.1,    0.0,  999.0,    0.1,    0.1,    0.2,   -0.0,    0.2,    0.1,    0.2,    0.1,    0.1,    0.1,  999.0,    0.0,    0.1,    0.1,    0.2,    0.5,    0.0,  999.0,  999.0,  999.0,  999.0,  999.0,  999.0,  999.0,  999.0,  999.0,  999.0,  999.0,  999.0,  999.0,  999.0,  999.0,  999.0,  999.0
2007/07/23 15:50,    0.0,   -0.0,   -0.0,    0.0,    0.0,    0.0,    0.0,    0.0,   -0.0,    0.0,   -0.0,    0.1,    0.1,    0.1,    0.0,    0.0,   -0.0,    0.1,    0.2,    0.3,    0.2,    0.1,    0.1,    0.2,    0.2,    0.2,    0.1,    0.0,   -0.0,    0.0,    0.0,   -0.0,   -0.0,   -0.0,   -0.1,   -0.1,   -0.2,   -0.1,   -0.1,   -0.2,   -0.2,   -0.2,  999.0,   -0.0,    0.0,   -0.0,   -0.0,    0.0,   -0.0,   -0.1,   -0.0,   -0.1,    0.1,    0.1,   -0.0,    0.2,   -0.0,    0.1,    0.2,    0.2,  999.0,  999.0,  999.0,  999.0,  999.0,  999.0,  999.0,  999.0,  999.0,    0.0,  999.0,  999.0,  999.0,  999.0,  999.0,  999.0,  999.0,  999.0,  999.0
2007/07/23 16:00,    0.0,   -0.0,    0.0,    0.0,    0.0,   -0.0,   -0.1,   -0.1,  999.0,    0.0,   -0.1,   -0.0,    0.0,    0.0,   -0.0,   -0.0,   -0.0,   -0.1,   -0.1,   -0.1,   -0.1,   -0.0,   -0.0,    0.1,   -0.0,    0.0,    0.0,   -0.0,    0.0,    0.0,   -0.0,    0.0,    0.0,    0.0,   -0.1,    0.0,    0.0,    0.0,    0.0,    0.0,    0.1,   -0.0,   -0.0,   -0.1,   -0.1,   -0.1,   -0.1,   -0.1,   -0.0,   -0.2,   -0.0,   -0.1,   -0.1,   -0.1,    0.0,   -0.0,    0.0,    0.1,    0.1,    0.1,    0.2,   -0.0,  999.0,  999.0,  999.0,  999.0,  999.0,  999.0,  999.0,   -0.0,  999.0,  999.0,  999.0,  999.0,  999.0,  999.0,  999.0,  999.0,  999.0
2007/07/23 16:10,    0.0,    0.0,   -0.2,   -0.0,   -0.2,   -0.1,  999.0,    0.0,   -0.0,   -0.0,   -0.0,    0.1,    0.0,    0.1,    0.2,    0.3,    0.4,    0.4,    0.3,    0.4,    0.4,    0.2,    0.3,    0.3,    0.1,    0.2,    0.2,    0.1,    0.0,    0.0,    0.1,    0.0,    0.1,    0.1,    0.3,    0.1,    0.2,    0.1,    0.2,    0.1,    0.1,    0.1,    0.1,    0.0,    0.0,    0.0,    0.1,    0.1,    0.1,    0.1,    0.0,   -0.0,  999.0,  999.0,    0.1,    0.0,   -0.0,   -0.0,    0.1,    0.1,    0.1,    0.0,  999.0,  999.0,  999.0,  999.0,    0.2,  999.0,  999.0,    0.1,  999.0,  999.0,  999.0,  999.0,  999.0,  999.0,  999.0,  999.0,  999.0
2007/07/23 16:20,   -0.0,   -0.0,    0.0,   -0.0,   -0.1,   -0.1,   -0.1,   -0.1,   -0.1,   -0.1,    0.0,    0.0,   -0.0,    0.0,    0.0,    0.1,    0.1,    0.2,    0.3,    0.3,    0.3,    0.2,    0.3,    0.2,    0.3,    0.2,    0.1,    0.0,    0.0,    0.1,    0.2,    0.1,    0.1,    0.1,    0.2,    0.1,    0.3,    0.2,    0.2,    0.2,    0.1,    0.1,    0.2,    0.0,    0.3,    0.1,   -0.0,  999.0,    0.0,   -0.0,    0.0,   -0.0,  999.0,  999.0,  999.0,  999.0,  999.0,    0.0,    0.0,   -0.1,   -0.0,    0.1,   -0.0,    0.0,  999.0,  999.0,  999.0,   -0.1,  999.0,  999.0,  999.0,  999.0,  999.0,  999.0,  999.0,  999.0,  999.0,  999.0,  999.0
2007/07/23 16:30,   -0.0,   -0.0,   -0.0,   -0.0,   -0.1,   -0.1,    0.0,   -0.0,   -0.1,   -0.1,    0.0,    0.0,   -0.0,    0.0,    0.0,    0.1,    0.1,    0.1,    0.1,    0.1,    0.1,    0.1,    0.1,    0.1,    0.1,    0.1,    0.0,   -0.0,    0.0,    0.0,   -0.0,    0.0,    0.0,    0.0,   -0.1,   -0.0,   -0.0,   -0.0,   -0.0,   -0.0,   -0.0,    0.0,   -0.0,   -0.0,   -0.2,   -0.1,   -0.1,    0.2,   -0.1,   -0.2,   -0.1,   -0.2,   -0.3,    0.0,   -0.2,  999.0,  999.0,   -0.4,   -0.3,   -0.1,   -0.1,   -0.1,   -0.1,   -0.2,  999.0,  999.0,    0.0,   -0.0,  999.0,  999.0,  999.0,  999.0,  999.0,  999.0,  999.0,  999.0,  999.0,  999.0,  999.0
2007/07/23 16:40,   -0.0,   -0.0,   -0.0,   -0.1,   -0.2,   -0.1,   -0.1,   -0.0,    0.0,   -0.1,    0.0,    0.0,    0.0,    0.0,    0.1,    0.2,    0.1,    0.0,    0.0,    0.1,    0.1,    0.1,    0.1,    0.0,    0.0,    0.0,    0.0,   -0.0,   -0.0,   -0.0,   -0.0,    0.0,   -0.0,    0.0,    0.0,   -0.0,   -0.0,   -0.0,   -0.1,    0.1,    0.0,   -0.1,  999.0,  999.0,  999.0,  999.0,    0.0,   -0.2,   -0.1,   -0.2,   -0.2,   -0.1,   -0.1,   -0.1,   -0.0,   -0.2,  999.0,    0.0,  999.0,   -0.1,    0.1,    0.1,    0.1,   -0.0,    0.0,   -0.1,  999.0,    0.0,  999.0,  999.0,  999.0,  999.0,  999.0,  999.0,  999.0,  999.0,  999.0,  999.0,  999.0
2007/07/23 16:50,    0.0,   -0.0,   -0.0,   -0.0,   -0.1,   -0.0,  999.0,    0.0,    0.1,    0.2,    0.3,    0.0,   -0.0,    0.1,    0.2,    0.1,    0.1,    0.1,    0.1,    0.1,    0.2,    0.2,    0.2,    0.2,    0.1,    0.1,    0.1,    0.0,   -0.0,   -0.0,   -0.0,    0.0,   -0.0,   -0.0,    0.0,   -0.0,   -0.0,   -0.0,   -0.0,   -0.0,    0.0,  999.0,  999.0,   -0.0,  999.0,  999.0,    0.0,    0.1,  999.0,  999.0,   -0.1,   -0.0,    0.1,    0.1,  999.0,    0.0,  999.0,  999.0,    0.2,  999.0,    0.1,  999.0,    0.1,    0.1,    0.1,    0.1,  999.0,   -0.1,    0.3,  999.0,  999.0,  999.0,  999.0,  999.0,  999.0,  999.0,  999.0,  999.0,  999.0
2007/07/23 17:00,   -0.0,   -0.0,   -0.0,   -0.0,   -0.1,   -0.2,    0.0,   -0.0,    0.1,    0.1,   -0.0,    0.0,   -0.0,    0.0,    0.0,    0.0,    0.1,    0.1,    0.1,    0.1,    0.1,    0.1,    0.1,    0.1,   -0.0,   -0.0,   -0.0,   -0.0,   -0.0,    0.0,   -0.0,   -0.0,   -0.1,   -0.0,   -0.0,    0.0,    0.0,    0.0,    0.0,    0.0,  999.0,  999.0,    0.2,    0.2,    0.2,    0.1,    0.2,    0.4,    0.0,    0.2,    0.2,    0.1,    0.1,    0.2,    0.1,  999.0,  999.0,  999.0,  999.0,  999.0,  999.0,  999.0,  999.0,  999.0,    0.1,    0.1,  999.0,  999.0,  999.0,  999.0,    0.1,  999.0,  999.0,  999.0,  999.0,  999.0,  999.0,  999.0,  999.0
2007/07/23 17:10,   -0.0,   -0.0,   -0.0,   -0.0,   -0.1,   -0.3,   -0.1,   -0.0,   -0.0,    0.0,   -0.0,   -0.0,    0.0,   -0.0,   -0.0,    0.0,    0.0,    0.0,    0.1,    0.0,    0.1,    0.1,    0.1,    0.0,    0.1,    0.1,   -0.0,    0.0,    0.0,    0.0,    0.0,   -0.0,    0.1,    0.0,    0.1,    0.1,    0.1,    0.1,    0.0,    0.2,    0.2,    0.2,    0.1,   -0.0,    0.2,    0.1,    0.3,    0.0,  999.0,   -0.1,    0.1,    0.1,    0.1,    0.1,    0.2,    0.1,    0.2,    0.1,   -0.0,  999.0,  999.0,  999.0,  999.0,    0.0,  999.0,    0.2,    0.0,    0.0,  999.0,  999.0,    0.1,   -0.0,    0.1,  999.0,  999.0,  999.0,  999.0,  999.0,  999.0
2007/07/23 17:20,   -0.0,   -0.0,   -0.0,   -0.0,   -0.1,   -0.2,   -0.0,   -0.1,   -0.0,   -0.1,   -0.0,   -0.0,   -0.0,   -0.0,    0.0,   -0.0,    0.0,   -0.0,    0.0,    0.0,    0.0,    0.0,    0.0,   -0.0,   -0.0,    0.1,    0.0,    0.0,   -0.0,    0.1,   -0.0,    0.0,    0.1,    0.0,    0.1,    0.1,    0.2,    0.2,    0.3,    0.4,    0.4,    0.2,    0.4,  999.0,    0.2,  999.0,    0.2,   -0.0,    0.2,    0.2,    0.1,    0.2,    0.2,    0.1,    0.2,    0.1,    0.1,   -0.1,    0.0,   -0.2,  999.0,  999.0,  999.0,    0.0,    0.0,    0.0,    0.1,    0.2,    0.1,    0.1,    0.0,  999.0,    0.3,  999.0,  999.0,  999.0,    0.2,    0.4,  999.0
2007/07/23 17:30,    0.0,   -0.0,    0.0,   -0.0,   -0.0,   -0.0,    0.0,    0.0,   -0.0,    0.0,    0.0,    0.0,    0.0,    0.0,   -0.0,    0.0,    0.0,    0.0,    0.0,   -0.0,    0.0,    0.0,    0.1,    0.0,    0.0,    0.0,    0.0,   -0.0,    0.0,    0.0,    0.0,    0.0,    0.0,    0.0,    0.1,    0.1,    0.1,    0.1,    0.3,    0.0,    0.1,    0.1,    0.1,    0.1,    0.1,    0.1,    0.3,  999.0,  999.0,    0.4,    0.1,    0.1,    0.1,    0.1,    0.1,    0.1,    0.2,    0.1,    0.2,   -0.0,  999.0,  999.0,  999.0,   -0.2,  999.0,   -0.1,  999.0,   -0.2,    0.0,  999.0,   -0.1,   -0.1,    0.0,  999.0,  999.0,  999.0,   -0.1,    0.0,  999.0
2007/07/23 17:40,    0.0,    0.0,    0.0,   -0.1,   -0.1,   -0.1,    0.0,   -0.0,   -0.1,   -0.3,   -0.3,   -0.2,   -0.2,   -0.2,   -0.1,    0.1,   -0.0,    0.0,   -0.0,   -0.0,    0.0,   -0.1,   -0.1,    0.1,    0.1,    0.1,    0.1,    0.1,    0.0,   -0.0,    0.0,    0.1,    0.1,   -0.0,    0.2,    0.2,    0.2,    0.3,    0.3,   -0.3,   -0.5,   -0.0,    0.1,   -0.3,    0.0,    0.4,    0.2,   -0.0,  999.0,   -0.3,    0.2,    0.3,    0.3,    0.3,    0.2,    0.2,    0.2,    0.2,    0.1,    0.0,  999.0,  999.0,  999.0,    0.2,    0.1,    0.1,    0.1,  999.0,    0.1,    0.0,    0.0,   -0.0,    0.0,    0.0,  999.0,  999.0,  999.0,   -0.3,  999.0
2007/07/23 17:50,    0.0,   -0.0,    0.0,   -0.1,   -0.1,  999.0,  999.0,   -0.6,   -1.5,   -1.3,   -1.3,   -2.2,   -0.9,   -0.9,   -0.8,   -0.9,   -0.6,   -0.4,    0.2,    0.3,    0.3,   -1.2,    0.6,   -1.7,    0.8,    0.8,    0.6,    0.4,    0.3,    0.3,    0.4,    0.5,    0.4,    0.5,    0.4,    0.5,   -0.5,    0.2,   -0.5,   -0.4,   -0.6,   -0.5,    0.0,   -0.1,   -0.1,    0.4,    0.0,    0.8,    0.4,    0.2,    0.2,   -0.1,    0.2,   -0.3,   -0.3,   -0.4,   -0.0,   -0.8,   -0.6,   -0.7,   -0.7,   -0.9,   -0.8,   -0.7,  999.0,  999.0,  999.0,  999.0,  999.0,  999.0,   -0.3,   -0.3,   -0.3,  999.0,  999.0,  999.0,   -2.6,  999.0,  999.0
2007/07/23 18:00,    0.0,   -0.0,   -0.0,   -0.0,   -0.0,    0.0,   -0.0,    0.0,   -0.0,    0.0,    0.0,   -0.1,   -0.2,   -0.2,   -0.2,   -0.3,   -0.1,   -0.2,   -0.3,   -0.3,   -0.3,   -0.3,   -0.3,   -0.3,   -0.2,   -0.1,   -0.1,    0.1,    0.2,    0.1,    0.2,    0.3,    0.3,    0.4,    0.4,    0.8,    0.9,    1.1,    0.8,    0.7,  999.0,    0.6,  999.0,  999.0,    0.8,    0.8,    0.5,    0.4,    0.6,    0.5,    0.6,    0.3,    0.4,    0.5,    0.4,    0.2,    0.2,    0.2,   -0.0,   -0.4,   -0.4,   -0.6,   -0.8,   -0.8,   -0.7,   -0.6,   -0.5,   -0.3,   -0.2,   -0.1,   -0.0,    0.2,    0.5,    0.1,   -0.5,   -0.2,   -0.5,   -0.9,   -1.1
2007/07/23 18:10,   -0.0,   -0.1,   -0.0,    0.0,   -0.1,   -0.0,  999.0,   -0.0,   -0.2,   -0.2,   -0.4,   -0.3,   -0.3,   -0.3,   -0.2,   -0.1,   -0.1,   -0.1,   -0.0,   -0.1,   -0.1,   -0.0,   -0.1,   -0.1,   -0.0,   -0.0,    0.1,    0.0,   -0.0,   -0.0,    0.1,    0.0,    0.1,    0.1,    0.1,    0.2,    0.3,    0.2,    0.3,    0.3,    0.3,    0.2,    0.2,    0.1,    0.3,    0.3,    0.4,    0.2,    0.2,    0.2,    0.2,   -0.0,  999.0,    0.1,   -0.0,    0.0,   -0.0,    0.0,   -0.6,  999.0,   -1.2,   -0.9,   -0.9,   -1.1,   -0.7,   -1.2,   -2.2,   -2.0,   -2.2,   -2.2,   -1.5,   -1.2,   -1.1,   -2.4,   -2.4,   -2.3,   -2.3,   -1.9,   -1.4
2007/07/23 18:20,   -0.0,   -0.1,   -0.0,    0.0,   -0.1,   -0.1,    0.0,   -0.0,   -0.1,   -0.1,   -0.2,   -0.3,   -0.2,   -0.2,   -0.2,   -0.1,   -0.2,   -0.2,   -0.1,   -0.1,   -0.1,   -0.1,   -0.1,   -0.1,   -0.0,   -0.0,   -0.0,   -0.1,   -0.0,   -0.0,    0.0,    0.0,   -0.0,    0.0,    0.0,    0.0,    0.1,    0.1,    0.1,    0.3,    0.2,    0.2,    0.1,    0.1,    0.2,  999.0,    0.1,    0.0,  999.0,  999.0,  999.0,  999.0,  999.0,  999.0,   -2.3,   -2.3,   -2.2,   -2.3,   -2.2,   -2.1,   -1.9,   -1.9,   -2.0,   -2.0,   -2.0,   -2.1,   -2.1,   -2.1,   -1.8,   -1.8,   -1.9,   -1.7,   -1.6,   -1.4,   -1.6,   -1.6,   -1.4,   -1.3,   -1.4
2007/07/23 18:30,   -0.0,   -0.0,   -0.0,   -0.0,   -0.1,   -0.0,  999.0,   -0.0,   -0.1,   -0.1,   -0.2,   -0.2,   -0.2,   -0.1,   -0.1,    0.1,   -0.1,   -0.1,   -0.1,   -0.0,    0.0,   -0.0,   -0.0,    0.1,    0.1,    0.2,    0.2,    0.2,    0.1,    0.1,    0.1,    0.1,    0.2,    0.1,    0.3,    0.3,    0.3,    0.3,    0.3,    0.3,    0.4,    0.2,    0.3,    0.2,    0.3,    0.1,    0.2,    0.2,    0.2,    0.1,    0.3,    0.1,    0.3,    0.4,  999.0,  999.0,   -0.0,    0.3,    0.2,  999.0,  999.0,  999.0,  999.0,    0.1,  999.0,  999.0,  999.0,  999.0,    0.1,   -0.2,  999.0,  999.0,   -0.3,   -0.0,   -0.5,   -0.2,   -0.1,   -0.4,   -0.0
2007/07/23 18:40,   -0.0,   -0.0,    0.0,   -0.0,   -0.1,   -0.0,   -0.0,   -0.0,   -0.1,   -0.2,   -0.3,   -0.2,   -0.1,   -0.2,   -0.1,   -0.1,   -0.0,   -0.1,   -0.0,   -0.0,    0.1,   -0.0,    0.1,    0.1,    0.0,    0.1,    0.1,    0.1,    0.1,    0.1,    0.1,    0.2,    0.2,    0.2,    0.3,    0.3,    0.3,    0.4,    0.3,    0.4,    0.3,    0.3,  999.0,    0.5,    0.5,    0.4,    0.5,    0.2,  999.0,    0.1,    0.3,    0.4,    0.1,    0.3,    0.1,   -0.2,    0.1,   -0.0,   -0.0,    0.1,   -0.2,   -0.2,   -0.2,   -0.2,  999.0,  999.0,  999.0,  999.0,  999.0,    0.2,   -0.1,  999.0,  999.0,   -0.1,   -0.1,    0.2,  999.0,  999.0,  999.0
2007/07/23 18:50,    0.0,   -0.0,    0.0,   -0.1,   -0.2,   -0.4,   -0.2,   -0.3,   -0.3,   -0.3,   -0.4,   -0.3,   -0.3,   -0.2,   -0.3,   -0.3,   -0.3,   -0.3,   -0.2,   -0.2,   -0.3,   -0.2,   -0.2,   -0.2,   -0.2,   -0.1,   -0.0,   -0.0,   -0.0,   -0.1,   -0.0,    0.0,   -0.0,   -0.1,   -0.1,   -0.1,   -0.0,   -0.0,    0.0,    0.1,    0.0,   -0.0,    0.1,    0.0,  999.0,   -0.0,    0.2,    0.2,    0.6,    0.3,    0.2,    0.1,    0.2,    0.2,    0.2,    0.0,    0.1,   -0.1,   -0.2,   -0.0,   -0.0,   -0.1,  999.0,   -0.1,  999.0,  999.0,  999.0,  999.0,  999.0,  999.0,  999.0,  999.0,   -0.1,    0.0,   -0.3,   -0.3,  999.0,   -0.4,   -0.2
2007/07/23 19:00,    0.0,    0.0,    0.0,   -0.1,   -0.1,   -0.2,   -0.0,   -0.1,   -0.2,   -0.1,   -0.2,   -0.2,   -0.3,   -0.2,   -0.1,   -0.2,   -0.1,   -0.1,   -0.2,   -0.2,   -0.0,   -0.1,   -0.1,   -0.1,    0.0,    0.0,    0.0,    0.0,    0.0,    0.2,    0.1,    0.2,    0.2,    0.3,    0.4,    0.3,    0.4,    0.3,    0.4,    0.4,    0.4,  999.0,    0.4,    0.3,    0.4,   -0.0,    0.4,    0.4,    0.5,   -0.1,  999.0,    0.3,    0.3,    0.2,    0.6,  999.0,  999.0,  999.0,    0.3,    0.3,  999.0,  999.0,  999.0,  999.0,    0.1,   -0.2,  999.0,  999.0,  999.0,  999.0,  999.0,  999.0,    0.2,  999.0,  999.0,    0.0,    0.2,  999.0,  999.0
2007/07/23 19:10,   -0.0,   -0.0,   -0.0,   -0.0,   -0.1,   -0.1,    0.0,   -0.0,   -0.0,   -0.0,   -0.1,   -0.0,   -0.1,   -0.1,   -0.0,   -0.0,    0.0,   -0.0,   -0.1,   -0.1,   -0.0,   -0.1,   -0.1,   -0.1,   -0.1,   -0.0,   -0.0,   -0.0,   -0.0,    0.0,    0.0,    0.1,    0.2,    0.1,    0.4,    0.5,    0.5,    0.6,    0.5,    0.5,    0.5,    0.5,    0.5,    0.5,    0.5,    0.5,    0.4,    0.4,    0.3,    0.4,    0.3,    0.3,    0.3,  999.0,  999.0,    0.2,    0.1,    0.2,   -0.1,   -0.2,  999.0,    0.1,    0.0,    0.1,   -0.0,   -0.1,  999.0,  999.0,  999.0,  999.0,  999.0,  999.0,  999.0,   -0.2,  999.0,  999.0,  999.0,  999.0,  999.0
2007/07/23 19:20,   -0.0,   -0.0,   -0.0,   -0.1,   -0.2,   -0.1,   -0.0,   -0.0,   -0.0,   -0.1,   -0.1,   -0.2,   -0.2,   -0.1,   -0.2,   -0.2,   -0.1,   -0.1,   -0.1,   -0.0,    0.0,   -0.1,    0.0,    0.0,    0.0,    0.1,    0.2,    0.0,    0.0,    0.1,    0.1,    0.2,    0.2,    0.2,    0.5,    0.5,    0.5,    0.6,    0.6,    0.6,    0.7,    0.6,    0.7,    0.7,    0.6,    0.6,    0.5,    0.6,    0.5,    0.4,    0.4,    0.4,    0.5,  999.0,    0.3,    0.3,    0.5,    0.5,    0.6,  999.0,  999.0,  999.0,    0.3,  999.0,    0.4,    0.3,    0.3,  999.0,  999.0,  999.0,  999.0,  999.0,  999.0,    0.3,    0.2,   -0.1,  999.0,  999.0,  999.0
2007/07/23 19:30,    0.0,    0.0,   -0.0,   -0.0,   -0.1,   -0.1,   -0.0,   -0.0,   -0.0,   -0.1,   -0.1,   -0.2,   -0.1,   -0.1,   -0.1,   -0.0,   -0.0,   -0.1,    0.1,    0.1,    0.2,    0.2,    0.2,    0.4,    0.3,    0.3,    0.3,    0.2,    0.2,    0.2,    0.3,    0.4,    0.5,    0.4,    0.4,    0.3,    0.4,    0.3,    0.3,    0.3,    0.5,    0.5,    0.3,  999.0,  999.0,  999.0,    0.4,    0.3,    0.5,  999.0,    0.3,    0.3,    0.3,    0.5,    0.2,    0.5,    0.5,    0.1,    0.3,    0.3,    0.1,  999.0,  999.0,   -0.2,   -0.0,    0.0,   -0.1,  999.0,  999.0,  999.0,  999.0,  999.0,  999.0,   -0.1,   -0.2,  999.0,    0.0,  999.0,  999.0
2007/07/23 19:40,    0.0,   -0.0,    0.0,   -0.1,   -0.1,   -0.1,  999.0,   -0.0,   -0.0,   -0.0,   -0.0,   -0.1,   -0.2,   -0.2,   -0.1,   -0.0,   -0.1,   -0.2,   -0.1,   -0.2,   -0.2,   -0.0,   -0.1,   -0.1,   -0.1,   -0.1,   -0.1,   -0.0,   -0.0,    0.0,    0.0,    0.0,    0.0,    0.0,    0.1,    0.0,    0.2,    0.1,    0.2,    0.2,    0.2,  999.0,    0.1,  999.0,    0.2,    0.2,    0.2,  999.0,  999.0,  999.0,    0.0,    0.0,   -0.1,    0.0,    0.1,    0.0,   -0.0,   -0.0,    0.0,    0.2,   -0.0,    0.1,  999.0,   -0.1,   -0.1,    0.2,   -0.0,   -0.1,   -0.0,  999.0,    0.0,  999.0,  999.0,    0.4,    0.4,  999.0,  999.0,  999.0,  999.0
2007/07/23 19:50,   -0.0,    0.0,    0.0,    0.0,   -0.0,   -0.0,  999.0,    0.0,   -0.0,    0.0,    0.0,    0.1,    0.1,    0.1,    0.0,    0.1,    0.2,    0.2,    0.3,    0.3,    0.3,    0.2,    0.2,    0.2,    0.2,    0.2,    0.2,    0.1,    0.0,    0.1,    0.1,    0.1,    0.1,    0.1,    0.2,    0.2,    0.3,    0.0,    0.2,    0.3,    0.4,    0.1,    0.3,    0.4,    0.1,    0.4,    0.6,  999.0,    0.5,    0.2,    0.3,    0.3,    0.2,    0.3,    0.2,    0.1,    0.1,    0.2,    0.2,    0.0,   -0.0,   -0.1,    0.0,    0.4,    0.0,    0.1,    0.2,    0.2,    0.1,  999.0,    0.0,   -0.0,  999.0,  999.0,  999.0,  999.0,  999.0,  999.0,  999.0
2007/07/23 20:00,   -0.0,   -0.0,    0.0,   -0.0,   -0.1,   -0.1,  999.0,   -0.0,   -0.0,   -0.0,   -0.0,   -0.1,   -0.1,   -0.1,   -0.1,    0.0,    0.0,    0.1,    0.1,    0.1,    0.2,    0.2,    0.2,    0.2,    0.1,    0.2,    0.1,    0.1,    0.1,    0.1,    0.1,    0.1,    0.1,    0.2,    0.3,    0.2,    0.1,   -0.0,    0.1,    0.2,    0.2,  999.0,    0.2,    0.2,  999.0,  999.0,    0.3,    0.1,    0.2,    0.1,    0.1,    0.1,    0.1,    0.1,    0.1,    0.0,   -0.0,    0.0,  999.0,    0.0,    0.0,  999.0,    0.1,  999.0,  999.0,  999.0,    0.1,  999.0,  999.0,  999.0,  999.0,  999.0,  999.0,  999.0,  999.0,  999.0,  999.0,  999.0,  999.0
2007/07/23 20:10,   -0.0,   -0.0,    0.0,   -0.0,   -0.1,   -0.0,  999.0,    0.0,    0.0,   -0.0,    0.0,    0.1,    0.0,    0.1,    0.0,    0.1,    0.1,    0.1,    0.2,    0.1,    0.1,    0.1,    0.1,    0.1,    0.1,    0.1,    0.1,    0.0,    0.0,    0.0,    0.0,    0.0,    0.0,    0.0,    0.0,    0.0,    0.1,   -0.0,    0.1,    0.1,  999.0,    0.2,    0.3,    0.2,    0.1,  999.0,    0.0,    0.1,    0.1,  999.0,    0.0,    0.2,    0.1,  999.0,   -0.1,    0.1,    0.1,    0.2,   -0.0,    0.1,    0.4,  999.0,  999.0,  999.0,  999.0,  999.0,   -0.1,  999.0,  999.0,  999.0,  999.0,  999.0,  999.0,  999.0,  999.0,  999.0,  999.0,  999.0,  999.0
2007/07/23 20:20,    0.0,   -0.0,   -0.0,   -0.0,   -0.0,   -0.0,  999.0,   -0.0,   -0.0,   -0.0,   -0.0,    0.1,    0.0,    0.1,    0.1,    0.1,    0.1,    0.1,    0.1,    0.2,    0.2,    0.2,    0.1,    0.1,    0.2,    0.1,    0.2,    0.0,    0.0,    0.0,    0.1,    0.2,    0.2,    0.2,    0.3,    0.3,    0.3,    0.2,    0.3,    0.3,    0.3,    0.3,    0.2,    0.2,    0.3,    0.4,    0.2,    0.2,    0.4,  999.0,    0.4,    0.4,  999.0,  999.0,  999.0,    0.2,    0.3,    0.4,   -0.0,    0.2,    0.3,   -0.0,   -0.1,   -0.1,  999.0,  999.0,  999.0,  999.0,  999.0,   -0.1,  999.0,  999.0,  999.0,  999.0,  999.0,  999.0,  999.0,  999.0,  999.0
2007/07/23 20:30,   -0.0,   -0.0,    0.0,    0.0,   -0.1,   -0.1,  999.0,   -0.0,   -0.1,   -0.0,   -0.0,   -0.0,   -0.0,   -0.0,   -0.0,   -0.0,    0.0,    0.0,    0.0,   -0.1,    0.0,   -0.1,   -0.1,   -0.0,   -0.1,    0.0,    0.0,    0.0,    0.0,    0.0,    0.0,    0.1,    0.2,    0.2,    0.2,    0.2,    0.2,    0.3,    0.3,    0.2,    0.2,    0.3,    0.3,    0.1,    0.1,    0.2,    0.2,    0.3,    0.3,    0.3,    0.2,    0.2,    0.4,    0.5,    0.1,    0.2,    0.2,    0.6,  999.0,    0.3,    0.4,    0.2,    0.3,    0.3,  999.0,  999.0,  999.0,   -0.2,   -0.3,  999.0,  999.0,  999.0,  999.0,  999.0,  999.0,  999.0,  999.0,  999.0,  999.0
2007/07/23 20:40,    0.0,    0.0,    0.0,   -0.0,   -0.0,   -0.0,    0.0,   -0.0,   -0.0,   -0.0,   -0.0,   -0.0,    0.0,   -0.0,    0.0,    0.0,    0.0,    0.1,    0.1,    0.0,  999.0,   -0.0,    0.1,    0.0,    0.0,   -0.0,   -0.0,    0.0,    0.0,    0.0,    0.0,   -0.0,    0.1,   -0.0,   -0.0,    0.0,    0.1,    0.0,    0.1,    0.4,    0.1,    0.1,    0.2,    0.2,    0.3,    0.2,  999.0,    0.2,    0.3,    0.1,    0.2,    0.3,    0.2,    0.1,    0.0,    0.1,   -0.1,    0.1,  999.0,   -0.1,  999.0,    0.0,    0.1,    0.2,    0.0,  999.0,  999.0,  999.0,    0.3,  999.0,  999.0,  999.0,  999.0,  999.0,  999.0,  999.0,  999.0,  999.0,  999.0
2007/07/23 20:50,    0.0,    0.0,   -0.0,   -0.0,   -0.0,   -0.0,   -0.0,    0.0,    0.0,   -0.0,    0.0,   -0.0,    0.1,    0.1,    0.1,    0.1,    0.1,    0.1,    0.2,    0.1,    0.3,    0.2,    0.3,    0.3,    0.3,    0.4,    0.3,    0.3,    0.1,    0.1,    0.1,    0.3,    0.4,    0.2,    0.4,    0.4,    0.4,    0.5,    0.4,    0.3,    0.3,  999.0,    0.3,    0.3,    0.1,    0.1,    0.1,   -0.0,   -0.0,    0.1,  999.0,  999.0,    0.0,    0.1,   -0.0,   -0.1,   -0.0,   -0.1,  999.0,   -0.1,   -0.0,   -0.2,    0.1,   -0.0,    0.1,    0.0,   -0.0,  999.0,    0.0,   -0.0,  999.0,  999.0,  999.0,  999.0,  999.0,  999.0,  999.0,  999.0,  999.0
2007/07/23 21:00,   -0.0,   -0.0,   -0.0,   -0.0,   -0.2,   -0.2,   -0.0,   -0.0,   -0.1,   -0.1,   -0.2,   -0.2,   -0.1,   -0.2,   -0.1,   -0.1,   -0.0,   -0.0,    0.0,   -0.0,    0.0,   -0.1,  999.0,    0.1,    0.1,    0.1,    0.0,    0.0,    0.0,    0.0,   -0.0,    0.0,    0.1,    0.1,    0.1,    0.1,    0.1,  999.0,    0.0,    0.0,    0.1,   -0.1,  999.0,    0.0,   -0.0,    0.1,    0.0,    0.1,    0.1,    0.2,   -0.0,   -0.0,    0.0,  999.0,   -0.0,    0.1,    0.1,    0.0,    0.1,    0.2,    0.1,    0.1,  999.0,    0.3,   -0.1,    0.2,    0.2,  999.0,  999.0,    0.2,   -0.1,  999.0,  999.0,  999.0,  999.0,  999.0,  999.0,  999.0,  999.0
2007/07/23 21:10,   -0.0,    0.0,   -0.0,   -0.0,   -0.0,   -0.1,   -0.0,   -0.0,   -0.0,    0.0,    0.0,    0.1,    0.0,   -0.0,    0.1,    0.1,    0.1,    0.1,    0.1,    0.2,    0.1,    0.2,    0.2,    0.3,    0.2,    0.3,    0.2,    0.1,    0.0,    0.1,    0.1,    0.2,    0.2,    0.3,    0.3,    0.3,    0.2,    0.2,    0.2,    0.1,    0.2,    0.2,    0.1,    0.1,    0.2,    0.2,    0.2,    0.2,    0.1,    0.2,    0.2,    0.0,    0.1,  999.0,    0.3,   -0.1,    0.2,    0.2,    0.5,    0.2,   -0.0,    0.1,   -0.1,   -0.0,   -0.2,   -0.0,    0.1,   -0.2,  999.0,  999.0,  999.0,    0.0,   -0.1,    0.2,  999.0,   -0.1,  999.0,  999.0,  999.0
2007/07/23 21:20,    0.0,   -0.0,    0.0,   -0.0,   -0.1,   -0.0,   -0.0,   -0.0,   -0.0,    0.0,   -0.0,    0.0,    0.0,    0.0,    0.1,    0.1,    0.1,    0.0,    0.2,    0.2,    0.3,    0.2,    0.4,    0.4,    0.4,    0.4,    0.2,    0.1,    0.0,    0.2,    0.2,    0.5,  999.0,    0.5,    0.4,    0.5,    0.4,    0.4,    0.3,    0.3,    0.1,    0.1,    0.2,    0.2,    0.1,    0.1,  999.0,    0.1,    0.2,    0.3,    0.0,    0.0,    0.1,    0.1,    0.0,   -0.1,   -0.1,    0.0,    0.0,   -0.1,    0.1,  999.0,   -0.2,   -0.0,   -0.1,    0.1,   -0.1,   -0.2,   -0.1,  999.0,  999.0,  999.0,   -0.2,  999.0,  999.0,  999.0,  999.0,  999.0,  999.0
2007/07/23 21:30,    0.0,   -0.0,    0.0,   -0.0,   -0.1,   -0.1,   -0.0,   -0.0,    0.0,    0.0,    0.1,    0.1,    0.2,    0.1,    0.2,    0.3,    0.2,    0.3,    0.3,    0.5,    0.4,    0.3,    0.4,    0.4,    0.4,    0.4,    0.2,    0.1,    0.0,    0.1,    0.1,    0.3,    0.3,    0.3,    0.2,    0.2,    0.2,   -0.0,   -0.0,    0.0,   -0.0,   -0.0,    0.0,   -0.1,   -0.1,   -0.1,   -0.1,   -0.0,   -0.1,   -0.2,   -0.1,   -0.1,   -0.1,   -0.2,   -0.2,   -0.2,   -0.3,   -0.2,    0.2,   -0.3,   -0.2,   -0.1,   -0.3,   -0.3,  999.0,  999.0,  999.0,   -0.0,    0.1,  999.0,  999.0,  999.0,   -0.5,   -0.2,   -0.2,  999.0,   -0.4,  999.0,  999.0
2007/07/23 21:40,   -0.0,   -0.0,   -0.0,   -0.1,   -0.2,   -0.1,   -0.1,   -0.1,   -0.0,   -0.1,   -0.1,   -0.1,   -0.0,   -0.1,   -0.0,    0.0,    0.2,    0.1,   -0.0,    0.1,  999.0,    0.1,    0.1,    0.1,    0.2,    0.2,    0.2,    0.1,   -0.0,    0.1,    0.1,    0.3,    0.3,    0.3,    0.4,    0.4,  999.0,    0.4,    0.5,    0.3,    0.3,    0.4,    0.3,    0.3,    0.4,    0.3,    0.3,    0.3,    0.3,    0.2,    0.3,    0.5,  999.0,  999.0,    0.3,    0.3,    0.3,    0.2,    0.4,    0.2,    0.4,    0.3,    0.2,    0.2,    0.3,  999.0,  999.0,  999.0,  999.0,  999.0,  999.0,  999.0,   -0.3,   -0.5,   -0.4,  999.0,  999.0,  999.0,  999.0
2007/07/23 21:50,    0.0,   -0.0,   -0.0,   -0.1,   -0.2,   -0.2,   -0.0,   -0.1,   -0.0,   -0.1,   -0.1,   -0.1,   -0.1,   -0.0,   -0.0,    0.0,    0.0,    0.0,    0.0,    0.1,   -0.1,   -0.1,   -0.2,   -0.0,   -0.1,   -0.1,   -0.1,   -0.1,    0.0,   -0.1,   -0.1,   -0.1,   -0.0,    0.0,    0.0,    0.1,    0.1,  999.0,    0.0,    0.1,    0.2,    0.2,    0.3,    0.1,    0.2,    0.2,    0.2,    0.1,    0.2,    0.3,    0.1,    0.3,    0.2,  999.0,    0.3,    0.2,    0.3,    0.2,    0.1,    0.2,    0.1,    0.1,    0.4,    0.4,    0.4,    0.2,    0.1,  999.0,  999.0,  999.0,  999.0,    0.1,    0.0,   -0.1,  999.0,  999.0,  999.0,  999.0,  999.0
2007/07/23 22:00,   -0.0,   -0.0,   -0.0,   -0.0,   -0.1,   -0.1,   -0.1,   -0.0,    0.0,    0.0,   -0.1,    0.1,   -0.0,   -0.2,    0.1,   -0.2,   -0.0,   -0.2,   -0.2,   -0.1,    0.2,   -0.1,    0.2,    0.1,    0.5,    0.4,    0.5,    0.1,    0.1,    0.1,    0.1,    0.1,    0.3,    0.4,    0.5,    0.5,    0.4,    0.3,    0.5,    0.4,    0.3,    0.3,   -0.0,    0.3,    0.2,    0.2,    0.1,    0.1,  999.0,    0.1,   -0.0,  999.0,  999.0,  999.0,  999.0,    0.3,   -0.1,  999.0,   -0.4,    0.1,    0.1,  999.0,  999.0,  999.0,    0.1,    0.1,   -0.0,    0.1,  999.0,  999.0,  999.0,  999.0,  999.0,  999.0,  999.0,  999.0,  999.0,  999.0,  999.0
2007/07/23 22:10,    0.0,   -0.0,   -0.0,   -0.0,   -0.1,   -0.1,    0.0,   -0.0,   -0.0,   -0.1,   -0.2,   -0.2,   -0.3,   -0.3,   -0.2,   -0.3,   -0.3,   -0.2,   -0.2,   -0.3,   -0.3,   -0.3,   -0.3,   -0.3,   -0.3,   -0.1,    0.1,   -0.1,   -0.0,    0.0,    0.0,    0.0,    0.2,    0.1,    0.2,    0.3,    0.3,    0.2,    0.1,    0.2,    0.4,    0.4,    0.3,    0.4,    0.3,    0.4,    0.4,    0.4,    0.4,    0.6,    0.6,    0.6,  999.0,  999.0,    0.3,  999.0,  999.0,  999.0,  999.0,  999.0,    0.5,    0.4,    0.4,    0.3,  999.0,    0.1,    0.2,    0.1,   -0.0,  999.0,  999.0,  999.0,  999.0,  999.0,  999.0,  999.0,  999.0,  999.0,  999.0
2007/07/23 22:20,    0.0,   -0.0,    0.0,   -0.0,   -0.1,   -0.0,   -0.0,    0.0,    0.1,    0.1,    0.1,    0.2,    0.2,    0.2,    0.2,    0.1,    0.2,    0.1,    0.0,    0.1,    0.0,    0.2,   -0.1,    0.2,    0.3,    0.2,    0.3,    0.1,    0.1,    0.0,    0.0,    0.2,    0.2,    0.1,    0.1,    0.2,    0.2,    0.1,    0.2,    0.0,  999.0,   -0.0,    0.0,   -0.0,   -0.1,   -0.1,   -0.1,    0.0,   -0.1,   -0.0,    0.2,  999.0,   -0.2,  999.0,  999.0,  999.0,    0.2,  999.0,  999.0,    0.1,    0.1,    0.1,    0.1,   -0.1,    0.1,    0.1,   -0.2,   -0.2,  999.0,    0.0,    0.1,  999.0,  999.0,  999.0,  999.0,  999.0,  999.0,  999.0,  999.0
2007/07/23 22:30,    0.0,   -0.0,   -0.0,   -0.0,   -0.0,    0.0,   -0.0,    0.0,   -0.0,    0.0,    0.0,    0.2,    0.1,    0.1,    0.0,    0.0,   -0.2,   -0.1,   -0.0,   -0.1,    0.0,   -0.1,    0.1,   -0.0,    0.1,    0.0,    0.1,    0.0,    0.0,    0.0,    0.0,    0.0,    0.0,    0.0,   -0.0,   -0.1,   -0.2,   -0.2,   -0.2,   -0.4,   -0.1,   -0.3,   -0.3,   -0.4,   -0.3,   -0.3,   -0.1,   -0.3,   -0.1,  999.0,  999.0,  999.0,  999.0,  999.0,  999.0,   -0.0,    0.1,  999.0,  999.0,  999.0,    0.3,    0.4,  999.0,  999.0,    0.2,    0.1,    0.2,  999.0,  999.0,  999.0,  999.0,  999.0,  999.0,  999.0,  999.0,  999.0,  999.0,  999.0,  999.0
2007/07/23 22:40,   -0.0,   -0.0,   -0.0,   -0.1,   -0.1,   -0.1,   -0.0,   -0.0,    0.0,    0.0,    0.1,    0.1,    0.1,   -0.1,    0.1,    0.3,   -0.0,    0.3,    0.1,    0.4,    0.2,    0.2,    0.1,    0.1,    0.1,    0.1,    0.2,    0.1,    0.0,    0.0,    0.0,    0.1,    0.1,    0.2,    0.2,    0.1,    0.2,  999.0,    0.2,    0.3,    0.3,    0.2,    0.3,    0.2,    0.2,  999.0,  999.0,  999.0,    0.1,  999.0,  999.0,  999.0,  999.0,  999.0,  999.0,  999.0,  999.0,    0.3,  999.0,  999.0,  999.0,    0.3,  999.0,  999.0,    0.4,  999.0,    0.4,  999.0,    0.1,  999.0,  999.0,  999.0,   -0.0,  999.0,  999.0,  999.0,  999.0,  999.0,  999.0
2007/07/23 22:50,   -0.0,   -0.0,   -0.0,   -0.0,   -0.1,   -0.0,  999.0,   -0.0,   -0.0,   -0.0,    0.0,    0.0,   -0.0,    0.0,   -0.0,    0.0,   -0.0,   -0.1,    0.0,    0.3,    0.2,    0.1,    0.1,    0.2,    0.4,    0.2,    0.3,    0.3,    0.0,    0.1,    0.1,    0.3,    0.3,    0.3,    0.3,    0.3,    0.2,    0.4,    0.3,    0.2,    0.2,    0.2,   -0.0,   -0.1,    0.0,  999.0,  999.0,  999.0,  999.0,  999.0,  999.0,  999.0,  999.0,  999.0,  999.0,  999.0,  999.0,    0.0,    0.2,  999.0,  999.0,    0.2,  999.0,   -0.1,    0.3,  999.0,  999.0,  999.0,   -0.2,   -0.0,  999.0,  999.0,    0.2,  999.0,  999.0,  999.0,  999.0,  999.0,  999.0
2007/07/23 23:00,    0.0,   -0.0,   -0.0,   -0.1,   -0.1,   -0.1,   -0.0,   -0.1,   -0.1,   -0.2,   -0.3,   -0.3,   -0.1,   -0.1,   -0.0,    0.0,    0.0,   -0.1,   -0.0,    0.0,    0.0,    0.0,    0.1,    0.0,    0.0,   -0.0,    0.0,    0.0,   -0.1,   -0.0,   -0.0,   -0.0,   -0.0,   -0.0,   -0.1,   -0.1,   -0.1,   -0.1,   -0.3,   -0.1,   -0.0,    0.0,  999.0,    0.1,  999.0,    0.3,  999.0,  999.0,    0.2,    0.5,    0.5,  999.0,  999.0,  999.0,  999.0,    0.8,  999.0,  999.0,  999.0,  999.0,   -0.0,    0.1,    0.2,  999.0,   -0.0,    0.2,  999.0,   -0.1,   -0.1,   -0.1,  999.0,  999.0,   -0.1,  999.0,  999.0,  999.0,  999.0,  999.0,  999.0
2007/07/23 23:10,    0.0,   -0.0,   -0.0,   -0.0,   -0.1,   -0.1,   -0.0,   -0.1,   -0.1,   -0.1,   -0.2,   -0.1,   -0.0,   -0.0,    0.1,    0.0,    0.0,    0.1,    0.1,    0.1,    0.2,    0.2,    0.2,    0.2,    0.3,    0.3,    0.4,    0.3,    0.1,    0.3,    0.1,    0.4,    0.3,    0.3,    0.3,    0.3,    0.4,    0.4,    0.3,    0.3,    0.3,    0.3,    0.3,    0.4,    0.2,    0.5,  999.0,  999.0,    0.3,  999.0,    0.4,  999.0,    0.3,  999.0,    0.4,   -0.0,    0.2,  999.0,  999.0,  999.0,   -0.0,   -0.0,    0.0,   -0.0,   -0.2,   -0.0,   -0.1,  999.0,   -0.1,  999.0,  999.0,  999.0,  999.0,  999.0,  999.0,  999.0,  999.0,  999.0,  999.0
2007/07/23 23:20,    0.0,   -0.0,    0.0,   -0.0,   -0.1,   -0.1,   -0.0,   -0.1,   -0.1,   -0.1,   -0.2,   -0.1,   -0.1,   -0.0,    0.0,   -0.1,    0.0,    0.0,    0.0,   -0.1,    0.1,    0.0,    0.0,    0.0,    0.0,    0.0,    0.0,    0.0,    0.0,   -0.0,    0.0,    0.0,    0.2,    0.1,    0.2,    0.1,    0.2,    0.2,    0.1,    0.1,    0.1,    0.1,    0.1,    0.1,    0.0,    0.0,    0.3,  999.0,  999.0,  999.0,    0.0,   -0.1,    0.0,    0.1,   -0.2,   -0.2,   -0.1,  999.0,  999.0,   -0.1,   -0.1,   -0.1,   -0.1,   -0.1,    0.1,    0.0,   -0.0,   -0.0,  999.0,  999.0,  999.0,  999.0,  999.0,  999.0,  999.0,  999.0,  999.0,  999.0,  999.0
2007/07/23 23:30,   -0.0,   -0.0,    0.0,   -0.0,   -0.1,   -0.1,  999.0,   -0.0,   -0.0,   -0.1,   -0.2,   -0.1,   -0.1,   -0.0,   -0.0,    0.2,    0.2,    0.2,    0.1,    0.2,    0.2,    0.3,    0.3,    0.4,    0.3,    0.3,    0.3,    0.2,    0.0,    0.1,    0.2,    0.2,    0.1,    0.2,    0.2,    0.1,    0.0,    0.1,    0.1,    0.0,    0.2,    0.0,    0.0,    0.2,  999.0,   -0.0,  999.0,    0.0,  999.0,  999.0,    0.1,    0.1,   -0.1,    0.2,    0.0,    0.1,  999.0,  999.0,  999.0,    0.1,    0.2,    0.2,    0.2,    0.1,    0.2,  999.0,  999.0,  999.0,  999.0,  999.0,  999.0,  999.0,  999.0,  999.0,  999.0,  999.0,  999.0,    0.2,  999.0
2007/07/23 23:40,    0.0,   -0.0,   -0.0,   -0.0,   -0.0,   -0.0,  999.0,   -0.0,   -0.0,   -0.0,   -0.0,   -0.0,    0.0,    0.1,    0.0,    0.0,    0.1,    0.1,    0.1,    0.1,   -0.0,    0.0,   -0.0,   -0.0,   -0.1,   -0.1,   -0.1,   -0.1,   -0.0,   -0.1,   -0.1,   -0.2,   -0.2,   -0.2,   -0.2,   -0.2,  999.0,   -0.3,   -0.2,   -0.2,    0.1,   -0.1,   -0.2,   -0.2,   -0.1,   -0.2,    0.1,  999.0,  999.0,   -0.0,    0.1,   -0.0,   -0.0,   -0.2,   -0.3,   -0.1,   -0.1,   -0.3,   -0.2,   -0.1,    0.1,    0.4,    0.0,  999.0,    0.2,  999.0,  999.0,  999.0,  999.0,  999.0,  999.0,  999.0,  999.0,  999.0,  999.0,  999.0,  999.0,  999.0,  999.0
2007/07/23 23:50,    0.0,   -0.0,   -0.0,   -0.0,   -0.1,   -0.0,  999.0,   -0.0,   -0.0,    0.0,    0.0,   -0.0,    0.0,    0.1,    0.2,    0.1,    0.1,    0.1,    0.2,    0.2,    0.1,    0.2,    0.4,    0.2,    0.3,    0.3,    0.3,    0.2,    0.0,    0.1,    0.1,    0.1,    0.2,    0.2,    0.4,  999.0,  999.0,  999.0,    0.2,    0.2,    0.2,    0.2,  999.0,  999.0,  999.0,  999.0,   -0.1,   -0.1,    0.0,  999.0,    0.1,    0.0,    0.1,   -0.0,    0.1,  999.0,    0.1,    0.2,   -0.2,   -0.1,  999.0,  999.0,  999.0,  999.0,   -0.1,   -0.4,  999.0,  999.0,  999.0,  999.0,  999.0,  999.0,  999.0,  999.0,  999.0,  999.0,  999.0,  999.0,  999.0
